Observation data for Sweetwater on 02/15/2017      Previous  Date  Next       Current Mesonet Observations  Soil Data  Daily Summary Page  Observations in Plain Language
KSW1 150600Z 30005KT 03/01 A3016 RMK A01 T00320008  RH  085%=      5-min Rain = 0
KSW1 150601Z 30005KT 03/01 A3016 RMK A01 T00320008  RH  085%=      5-min Rain = 0
KSW1 150602Z 30006KT 03/01 A3016 RMK A01 T00310008  RH  085%=      5-min Rain = 0
KSW1 150603Z 30005KT 03/01 A3016 RMK A01 T00310008  RH  085%=      5-min Rain = 0
KSW1 150604Z 29005KT 03/01 A3016 RMK A01 T00300008  RH  085%=      5-min Rain = 0
KSW1 150605Z 29005KT 03/01 A3016 RMK A01 T00300008  RH  085%=      5-min Rain = 0
KSW1 150606Z 29005KT 03/01 A3016 RMK A01 T00290008  RH  086%=      5-min Rain = 0
KSW1 150607Z 29004KT 03/01 A3016 RMK A01 T00290008  RH  086%=      5-min Rain = 0
KSW1 150608Z 29004KT 03/01 A3016 RMK A01 T00280008  RH  086%=      5-min Rain = 0
KSW1 150609Z 29005KT 03/01 A3016 RMK A01 T00280008  RH  087%=      5-min Rain = 0
KSW1 150610Z 29005KT 03/01 A3016 RMK A01 T00280008  RH  087%=      5-min Rain = 0
KSW1 150611Z 29005KT 03/01 A3016 RMK A01 T00280008  RH  087%=      5-min Rain = 0
KSW1 150612Z 29005KT 03/01 A3016 RMK A01 T00270008  RH  087%=      5-min Rain = 0
KSW1 150613Z 29004KT 03/01 A3016 RMK A01 T00270008  RH  087%=      5-min Rain = 0
KSW1 150614Z 29005KT 03/01 A3016 RMK A01 T00270008  RH  088%=      5-min Rain = 0
KSW1 150615Z 29005KT 03/01 A3016 RMK A01 T00270009  RH  088%=      5-min Rain = 0
KSW1 150616Z 30005KT 03/01 A3016 RMK A01 T00270009  RH  088%=      5-min Rain = 0
KSW1 150617Z 29005KT 03/01 A3016 RMK A01 T00270008  RH  088%=      5-min Rain = 0
KSW1 150618Z 29005KT 03/01 A3016 RMK A01 T00270008  RH  088%=      5-min Rain = 0
KSW1 150619Z 29005KT 03/01 A3016 RMK A01 T00260008  RH  088%=      5-min Rain = 0
KSW1 150620Z 29005KT 03/01 A3016 RMK A01 T00260008  RH  088%=      5-min Rain = 0
KSW1 150621Z 29005KT 03/01 A3016 RMK A01 T00250008  RH  088%=      5-min Rain = 0
KSW1 150622Z 29005KT 03/01 A3016 RMK A01 T00250007  RH  088%=      5-min Rain = 0
KSW1 150623Z 29005KT 02/01 A3016 RMK A01 T00240007  RH  089%=      5-min Rain = 0
KSW1 150624Z 29005KT 02/01 A3016 RMK A01 T00240007  RH  089%=      5-min Rain = 0
KSW1 150625Z 28005KT 02/01 A3016 RMK A01 T00230006  RH  089%=      5-min Rain = 0
KSW1 150626Z 28005KT 02/01 A3016 RMK A01 T00220006  RH  089%=      5-min Rain = 0
KSW1 150627Z 28005KT 02/01 A3016 RMK A01 T00220006  RH  090%=      5-min Rain = 0
KSW1 150628Z 28005KT 02/01 A3016 RMK A01 T00210006  RH  090%=      5-min Rain = 0
KSW1 150629Z 27004KT 02/01 A3016 RMK A01 T00210006  RH  090%=      5-min Rain = 0
KSW1 150630Z 27004KT 02/01 A3016 RMK A01 T00210006  RH  090%=      5-min Rain = 0
KSW1 150631Z 27004KT 02/01 A3016 RMK A01 T00200006  RH  090%=      5-min Rain = 0
KSW1 150632Z 27004KT 02/01 A3016 RMK A01 T00200006  RH  090%=      5-min Rain = 0
KSW1 150633Z 26004KT 02/01 A3016 RMK A01 T00200006  RH  091%=      5-min Rain = 0
KSW1 150634Z 26004KT 02/01 A3016 RMK A01 T00190006  RH  091%=      5-min Rain = 0
KSW1 150635Z 26005KT 02/01 A3016 RMK A01 T00190006  RH  091%=      5-min Rain = 0
KSW1 150636Z 26005KT 02/01 A3016 RMK A01 T00190006  RH  091%=      5-min Rain = 0
KSW1 150637Z 26005KT 02/01 A3016 RMK A01 T00180005  RH  091%=      5-min Rain = 0
KSW1 150638Z 26005KT 02/01 A3016 RMK A01 T00170005  RH  092%=      5-min Rain = 0
KSW1 150639Z 26005KT 02/01 A3016 RMK A01 T00170005  RH  092%=      5-min Rain = 0
KSW1 150640Z 27005KT 02/01 A3016 RMK A01 T00160006  RH  093%=      5-min Rain = 0
KSW1 150641Z 27005KT 02/01 A3016 RMK A01 T00160006  RH  093%=      5-min Rain = 0
KSW1 150642Z 27005KT 02/01 A3016 RMK A01 T00160005  RH  093%=      5-min Rain = 0
KSW1 150643Z 27004KT 02/01 A3016 RMK A01 T00150005  RH  093%=      5-min Rain = 0
KSW1 150644Z 27004KT 02/01 A3016 RMK A01 T00150005  RH  093%=      5-min Rain = 0
KSW1 150645Z 27004KT 01/00 A3016 RMK A01 T00140004  RH  093%=      5-min Rain = 0
KSW1 150646Z 27004KT 01/00 A3016 RMK A01 T00140004  RH  093%=      5-min Rain = 0
KSW1 150647Z 27004KT 01/00 A3016 RMK A01 T00140004  RH  093%=      5-min Rain = 0
KSW1 150648Z 27004KT 01/00 A3016 RMK A01 T00130004  RH  094%=      5-min Rain = 0
KSW1 150649Z 27004KT 01/00 A3016 RMK A01 T00120004  RH  094%=      5-min Rain = 0
KSW1 150650Z 27004KT 01/00 A3016 RMK A01 T00120004  RH  094%=      5-min Rain = 0
KSW1 150651Z 26004KT 01/00 A3016 RMK A01 T00120004  RH  095%=      5-min Rain = 0
KSW1 150652Z 26005KT 01/00 A3016 RMK A01 T00120004  RH  095%=      5-min Rain = 0
KSW1 150653Z 26005KT 01/01 A3016 RMK A01 T00120005  RH  095%=      5-min Rain = 0
KSW1 150654Z 26005KT 01/01 A3016 RMK A01 T00120005  RH  095%=      5-min Rain = 0
KSW1 150655Z 26005KT 01/01 A3017 RMK A01 T00110005  RH  095%=      5-min Rain = 0
KSW1 150656Z 26005KT 01/01 A3017 RMK A01 T00110005  RH  095%=      5-min Rain = 0
KSW1 150657Z 26005KT 01/01 A3017 RMK A01 T00110005  RH  096%=      5-min Rain = 0
KSW1 150658Z 26005KT 01/01 A3017 RMK A01 T00110005  RH  096%=      5-min Rain = 0
KSW1 150659Z 26005KT 01/01 A3017 RMK A01 T00110005  RH  096%=      5-min Rain = 0
KSW1 150700Z 26005KT 01/01 A3017 RMK A01 T00110006  RH  096%=      5-min Rain = 0
KSW1 150701Z 26005KT 01/01 A3017 RMK A01 T00110006  RH  096%=      5-min Rain = 0
KSW1 150702Z 26005KT 01/01 A3017 RMK A01 T00120006  RH  096%=      5-min Rain = 0
KSW1 150703Z 26005KT 01/01 A3017 RMK A01 T00120006  RH  096%=      5-min Rain = 0
KSW1 150704Z 26005KT 01/01 A3017 RMK A01 T00110006  RH  096%=      5-min Rain = 0
KSW1 150705Z 26005KT 01/01 A3017 RMK A01 T00110005  RH  096%=      5-min Rain = 0
KSW1 150706Z 26005KT 01/01 A3017 RMK A01 T00110005  RH  096%=      5-min Rain = 0
KSW1 150707Z 26005KT 01/01 A3017 RMK A01 T00100005  RH  096%=      5-min Rain = 0
KSW1 150708Z 26006KT 01/01 A3017 RMK A01 T00100005  RH  096%=      5-min Rain = 0
KSW1 150709Z 26006KT 01/01 A3017 RMK A01 T00100005  RH  096%=      5-min Rain = 0
KSW1 150710Z 26006KT 01/00 A3017 RMK A01 T00100004  RH  096%=      5-min Rain = 0
KSW1 150711Z 26006KT 01/00 A3017 RMK A01 T00090004  RH  096%=      5-min Rain = 0
KSW1 150712Z 26006KT 01/00 A3017 RMK A01 T00090004  RH  096%=      5-min Rain = 0
KSW1 150713Z 26006KT 01/00 A3017 RMK A01 T00090004  RH  096%=      5-min Rain = 0
KSW1 150714Z 26006KT 01/00 A3017 RMK A01 T00090004  RH  096%=      5-min Rain = 0
KSW1 150715Z 26006KT 01/00 A3017 RMK A01 T00090004  RH  097%=      5-min Rain = 0
KSW1 150716Z 26006KT 01/00 A3017 RMK A01 T00090004  RH  097%=      5-min Rain = 0
KSW1 150717Z 26006KT 01/00 A3017 RMK A01 T00090004  RH  097%=      5-min Rain = 0
KSW1 150718Z 26005KT 01/00 A3017 RMK A01 T00090004  RH  097%=      5-min Rain = 0
KSW1 150719Z 26005KT 01/00 A3017 RMK A01 T00090004  RH  097%=      5-min Rain = 0
KSW1 150720Z 26005KT 01/00 A3017 RMK A01 T00090004  RH  097%=      5-min Rain = 0
KSW1 150721Z 26005KT 01/00 A3017 RMK A01 T00090004  RH  097%=      5-min Rain = 0
KSW1 150722Z 26005KT 01/00 A3018 RMK A01 T00090004  RH  097%=      5-min Rain = 0
KSW1 150723Z 26006KT 01/01 A3018 RMK A01 T00100005  RH  097%=      5-min Rain = 0
KSW1 150724Z 26006KT 01/01 A3018 RMK A01 T00100005  RH  097%=      5-min Rain = 0
KSW1 150725Z 26006KT 01/01 A3018 RMK A01 T00110006  RH  097%=      5-min Rain = 0
KSW1 150726Z 26006KT 01/01 A3018 RMK A01 T00110006  RH  097%=      5-min Rain = 0
KSW1 150727Z 26005KT 01/01 A3018 RMK A01 T00120007  RH  096%=      5-min Rain = 0
KSW1 150728Z 26005KT 01/01 A3018 RMK A01 T00120007  RH  096%=      5-min Rain = 0
KSW1 150729Z 26006KT 01/01 A3018 RMK A01 T00120007  RH  096%=      5-min Rain = 0
KSW1 150730Z 26006KT 01/01 A3018 RMK A01 T00130007  RH  096%=      5-min Rain = 0
KSW1 150731Z 26006KT 01/01 A3018 RMK A01 T00130008  RH  096%=      5-min Rain = 0
KSW1 150732Z 26005KT 01/01 A3018 RMK A01 T00140008  RH  096%=      5-min Rain = 0
KSW1 150733Z 26005KT 01/01 A3018 RMK A01 T00140008  RH  096%=      5-min Rain = 0
KSW1 150734Z 26005KT 01/01 A3018 RMK A01 T00140008  RH  096%=      5-min Rain = 0
KSW1 150735Z 26005KT 01/01 A3018 RMK A01 T00140009  RH  096%=      5-min Rain = 0
KSW1 150736Z 26006KT 01/01 A3018 RMK A01 T00140009  RH  096%=      5-min Rain = 0
KSW1 150737Z 27006KT 02/01 A3018 RMK A01 T00150009  RH  096%=      5-min Rain = 0
KSW1 150738Z 27005KT 02/01 A3018 RMK A01 T00150009  RH  096%=      5-min Rain = 0
KSW1 150739Z 27006KT 02/01 A3018 RMK A01 T00150009  RH  096%=      5-min Rain = 0
KSW1 150740Z 27005KT 02/01 A3018 RMK A01 T00150009  RH  096%=      5-min Rain = 0
KSW1 150741Z 27005KT 02/01 A3018 RMK A01 T00150009  RH  096%=      5-min Rain = 0
KSW1 150742Z 26005KT 02/01 A3018 RMK A01 T00160009  RH  096%=      5-min Rain = 0
KSW1 150743Z 26006KT 02/01 A3018 RMK A01 T00160009  RH  096%=      5-min Rain = 0
KSW1 150744Z 26005KT 02/01 A3018 RMK A01 T00150009  RH  096%=      5-min Rain = 0
KSW1 150745Z 27005KT 02/01 A3018 RMK A01 T00150009  RH  096%=      5-min Rain = 0
KSW1 150746Z 27005KT 02/01 A3018 RMK A01 T00160009  RH  095%=      5-min Rain = 0
KSW1 150747Z 27005KT 02/01 A3018 RMK A01 T00150009  RH  095%=      5-min Rain = 0
KSW1 150748Z 27006KT 02/01 A3018 RMK A01 T00150009  RH  095%=      5-min Rain = 0
KSW1 150749Z 27006KT 02/01 A3018 RMK A01 T00150008  RH  095%=      5-min Rain = 0
KSW1 150750Z 27006KT 02/01 A3018 RMK A01 T00150008  RH  095%=      5-min Rain = 0
KSW1 150751Z 27005KT 02/01 A3018 RMK A01 T00150008  RH  095%=      5-min Rain = 0
KSW1 150752Z 27005KT 02/01 A3018 RMK A01 T00150008  RH  095%=      5-min Rain = 0
KSW1 150753Z 27005KT 02/01 A3018 RMK A01 T00150008  RH  095%=      5-min Rain = 0
KSW1 150754Z 27005KT 02/01 A3018 RMK A01 T00150008  RH  095%=      5-min Rain = 0
KSW1 150755Z 27005KT 02/01 A3018 RMK A01 T00150008  RH  095%=      5-min Rain = 0
KSW1 150756Z 27005KT 02/01 A3018 RMK A01 T00150008  RH  095%=      5-min Rain = 0
KSW1 150757Z 27005KT 01/01 A3018 RMK A01 T00140007  RH  095%=      5-min Rain = 0
KSW1 150758Z 27006KT 01/01 A3018 RMK A01 T00140007  RH  095%=      5-min Rain = 0
KSW1 150759Z 27005KT 01/01 A3018 RMK A01 T00140007  RH  095%=      5-min Rain = 0
KSW1 150800Z 27006KT 01/01 A3018 RMK A01 T00130007  RH  095%=      5-min Rain = 0
KSW1 150801Z 27005KT 01/01 A3018 RMK A01 T00130007  RH  095%=      5-min Rain = 0
KSW1 150802Z 27005KT 01/01 A3019 RMK A01 T00130006  RH  095%=      5-min Rain = 0
KSW1 150803Z 27006KT 01/01 A3019 RMK A01 T00120006  RH  096%=      5-min Rain = 0
KSW1 150804Z 27005KT 01/01 A3019 RMK A01 T00120006  RH  096%=      5-min Rain = 0
KSW1 150805Z 27005KT 01/01 A3019 RMK A01 T00120006  RH  096%=      5-min Rain = 0
KSW1 150806Z 26005KT 01/01 A3019 RMK A01 T00120006  RH  096%=      5-min Rain = 0
KSW1 150807Z 26005KT 01/01 A3019 RMK A01 T00110006  RH  096%=      5-min Rain = 0
KSW1 150808Z 26005KT 01/01 A3019 RMK A01 T00110006  RH  096%=      5-min Rain = 0
KSW1 150809Z 26005KT 01/01 A3019 RMK A01 T00110006  RH  096%=      5-min Rain = 0
KSW1 150810Z 26004KT 01/01 A3019 RMK A01 T00110005  RH  096%=      5-min Rain = 0
KSW1 150811Z 26005KT 01/01 A3018 RMK A01 T00110005  RH  096%=      5-min Rain = 0
KSW1 150812Z 26005KT 01/01 A3018 RMK A01 T00110005  RH  096%=      5-min Rain = 0
KSW1 150813Z 26005KT 01/01 A3018 RMK A01 T00110006  RH  096%=      5-min Rain = 0
KSW1 150814Z 26005KT 01/01 A3018 RMK A01 T00110006  RH  096%=      5-min Rain = 0
KSW1 150815Z 26005KT 01/01 A3018 RMK A01 T00110006  RH  097%=      5-min Rain = 0
KSW1 150816Z 26005KT 01/01 A3018 RMK A01 T00110006  RH  097%=      5-min Rain = 0
KSW1 150817Z 26005KT 01/01 A3018 RMK A01 T00100005  RH  096%=      5-min Rain = 0
KSW1 150818Z 26004KT 01/01 A3018 RMK A01 T00100005  RH  097%=      5-min Rain = 0
KSW1 150819Z 26004KT 01/01 A3018 RMK A01 T00100005  RH  097%=      5-min Rain = 0
KSW1 150820Z 26004KT 01/01 A3018 RMK A01 T00100005  RH  097%=      5-min Rain = 0
KSW1 150821Z 26004KT 01/01 A3018 RMK A01 T00100005  RH  097%=      5-min Rain = 0
KSW1 150822Z 26004KT 01/00 A3018 RMK A01 T00090004  RH  097%=      5-min Rain = 0
KSW1 150823Z 26004KT 01/00 A3018 RMK A01 T00090004  RH  097%=      5-min Rain = 0
KSW1 150824Z 26004KT 01/00 A3018 RMK A01 T00090004  RH  097%=      5-min Rain = 0
KSW1 150825Z 26004KT 01/00 A3018 RMK A01 T00090004  RH  097%=      5-min Rain = 0
KSW1 150826Z 26004KT 01/00 A3018 RMK A01 T00080004  RH  097%=      5-min Rain = 0
KSW1 150827Z 26004KT 01/00 A3018 RMK A01 T00080004  RH  097%=      5-min Rain = 0
KSW1 150828Z 25005KT 01/00 A3018 RMK A01 T00080004  RH  097%=      5-min Rain = 0
KSW1 150829Z 26005KT 01/00 A3018 RMK A01 T00080004  RH  097%=      5-min Rain = 0
KSW1 150830Z 26005KT 01/00 A3018 RMK A01 T00080004  RH  097%=      5-min Rain = 0
KSW1 150831Z 25005KT 01/00 A3018 RMK A01 T00080004  RH  097%=      5-min Rain = 0
KSW1 150832Z 26005KT 01/00 A3018 RMK A01 T00080004  RH  097%=      5-min Rain = 0
KSW1 150833Z 26005KT 01/00 A3018 RMK A01 T00080004  RH  097%=      5-min Rain = 0
KSW1 150834Z 26005KT 01/00 A3018 RMK A01 T00070003  RH  097%=      5-min Rain = 0
KSW1 150835Z 26005KT 01/00 A3018 RMK A01 T00070003  RH  097%=      5-min Rain = 0
KSW1 150836Z 26005KT 01/00 A3018 RMK A01 T00060002  RH  097%=      5-min Rain = 0
KSW1 150837Z 26005KT 01/00 A3018 RMK A01 T00060002  RH  097%=      5-min Rain = 0
KSW1 150838Z 26005KT 01/00 A3018 RMK A01 T00060002  RH  097%=      5-min Rain = 0
KSW1 150839Z 26005KT 01/00 A3018 RMK A01 T00060002  RH  097%=      5-min Rain = 0
KSW1 150840Z 26006KT 01/00 A3018 RMK A01 T00060002  RH  097%=      5-min Rain = 0
KSW1 150841Z 26006KT 01/00 A3018 RMK A01 T00060002  RH  097%=      5-min Rain = 0
KSW1 150842Z 26006KT 01/00 A3018 RMK A01 T00060002  RH  097%=      5-min Rain = 0
KSW1 150843Z 26006KT 01/00 A3018 RMK A01 T00050002  RH  097%=      5-min Rain = 0
KSW1 150844Z 26006KT 01/00 A3018 RMK A01 T00050002  RH  097%=      5-min Rain = 0
KSW1 150845Z 26006KT 01/00 A3018 RMK A01 T00050001  RH  097%=      5-min Rain = 0
KSW1 150846Z 26006KT 01/00 A3018 RMK A01 T00050001  RH  097%=      5-min Rain = 0
KSW1 150847Z 26006KT 01/00 A3018 RMK A01 T00050001  RH  097%=      5-min Rain = 0
KSW1 150848Z 26006KT 01/00 A3018 RMK A01 T00050001  RH  097%=      5-min Rain = 0
KSW1 150849Z 26006KT 01/00 A3018 RMK A01 T00050001  RH  098%=      5-min Rain = 0
KSW1 150850Z 26006KT 01/00 A3018 RMK A01 T00050001  RH  098%=      5-min Rain = 0
KSW1 150851Z 26005KT 01/00 A3018 RMK A01 T00050001  RH  098%=      5-min Rain = 0
KSW1 150852Z 26005KT 01/00 A3018 RMK A01 T00050001  RH  098%=      5-min Rain = 0
KSW1 150853Z 26006KT 01/00 A3018 RMK A01 T00050001  RH  097%=      5-min Rain = 0
KSW1 150854Z 26006KT 01/00 A3018 RMK A01 T00050001  RH  097%=      5-min Rain = 0
KSW1 150855Z 26005KT 01/00 A3018 RMK A01 T00050001  RH  097%=      5-min Rain = 0
KSW1 150856Z 26006KT 01/00 A3018 RMK A01 T00050001  RH  097%=      5-min Rain = 0
KSW1 150857Z 26006KT 01/00 A3018 RMK A01 T00050001  RH  097%=      5-min Rain = 0
KSW1 150858Z 26005KT 01/00 A3018 RMK A01 T00050001  RH  097%=      5-min Rain = 0
KSW1 150859Z 26005KT 01/00 A3018 RMK A01 T00050001  RH  097%=      5-min Rain = 0
KSW1 150900Z 27006KT 01/00 A3018 RMK A01 T00050001  RH  097%=      5-min Rain = 0
KSW1 150901Z 26005KT 01/00 A3018 RMK A01 T00050002  RH  098%=      5-min Rain = 0
KSW1 150902Z 27005KT 01/00 A3018 RMK A01 T00050001  RH  097%=      5-min Rain = 0
KSW1 150903Z 27005KT 01/00 A3018 RMK A01 T00050001  RH  097%=      5-min Rain = 0
KSW1 150904Z 27005KT 01/00 A3018 RMK A01 T00050002  RH  097%=      5-min Rain = 0
KSW1 150905Z 27005KT 01/00 A3018 RMK A01 T00050001  RH  097%=      5-min Rain = 0
KSW1 150906Z 27005KT 01/00 A3018 RMK A01 T00060002  RH  097%=      5-min Rain = 0
KSW1 150907Z 27005KT 01/00 A3018 RMK A01 T00060002  RH  097%=      5-min Rain = 0
KSW1 150908Z 27005KT 01/00 A3018 RMK A01 T00060002  RH  097%=      5-min Rain = 0
KSW1 150909Z 27005KT 01/00 A3018 RMK A01 T00060001  RH  097%=      5-min Rain = 0
KSW1 150910Z 26006KT 01/00 A3018 RMK A01 T00060001  RH  097%=      5-min Rain = 0
KSW1 150911Z 26005KT 01/00 A3018 RMK A01 T00050001  RH  097%=      5-min Rain = 0
KSW1 150912Z 26005KT 01/00 A3018 RMK A01 T00050001  RH  097%=      5-min Rain = 0
KSW1 150913Z 27005KT 01/00 A3018 RMK A01 T00050001  RH  097%=      5-min Rain = 0
KSW1 150914Z 26004KT 01/00 A3018 RMK A01 T00050001  RH  097%=      5-min Rain = 0
KSW1 150915Z 27005KT 01/00 A3018 RMK A01 T00050001  RH  097%=      5-min Rain = 0
KSW1 150916Z 27005KT 01/00 A3018 RMK A01 T00050000  RH  097%=      5-min Rain = 0
KSW1 150917Z 27005KT 00/00 A3018 RMK A01 T000400-0  RH  097%=      5-min Rain = 0
KSW1 150918Z 27005KT 00/00 A3018 RMK A01 T000400-0  RH  097%=      5-min Rain = 0
KSW1 150919Z 26005KT 00/00 A3018 RMK A01 T000400-0  RH  097%=      5-min Rain = 0
KSW1 150920Z 26005KT 00/00 A3018 RMK A01 T000400-0  RH  097%=      5-min Rain = 0
KSW1 150921Z 27005KT 00/00 A3018 RMK A01 T000400-0  RH  097%=      5-min Rain = 0
KSW1 150922Z 27005KT 00/00 A3018 RMK A01 T000400-0  RH  097%=      5-min Rain = 0
KSW1 150923Z 26006KT 00/M00 A3018 RMK A01 T00031001  RH  097%=      5-min Rain = 0
KSW1 150924Z 27005KT 00/00 A3018 RMK A01 T000400-0  RH  097%=      5-min Rain = 0
KSW1 150925Z 26005KT 00/M00 A3018 RMK A01 T00031001  RH  097%=      5-min Rain = 0
KSW1 150926Z 26005KT 00/M00 A3018 RMK A01 T00031001  RH  097%=      5-min Rain = 0
KSW1 150927Z 27005KT 00/M00 A3018 RMK A01 T00031001  RH  097%=      5-min Rain = 0
KSW1 150928Z 27005KT 00/M00 A3018 RMK A01 T00021001  RH  097%=      5-min Rain = 0
KSW1 150929Z 27005KT 00/M00 A3018 RMK A01 T00031001  RH  097%=      5-min Rain = 0
KSW1 150930Z 27006KT 00/M00 A3018 RMK A01 T00031001  RH  097%=      5-min Rain = 0
KSW1 150931Z 27006KT 00/M00 A3018 RMK A01 T00031001  RH  097%=      5-min Rain = 0
KSW1 150932Z 27006KT 00/M00 A3018 RMK A01 T00031001  RH  097%=      5-min Rain = 0
KSW1 150933Z 27006KT 00/M00 A3018 RMK A01 T00021001  RH  097%=      5-min Rain = 0
KSW1 150934Z 28006KT 00/M00 A3018 RMK A01 T00021002  RH  097%=      5-min Rain = 0
KSW1 150935Z 28006KT 00/M00 A3018 RMK A01 T00021002  RH  097%=      5-min Rain = 0
KSW1 150936Z 28006KT 00/M00 A3018 RMK A01 T00021001  RH  097%=      5-min Rain = 0
KSW1 150937Z 28006KT 00/M00 A3018 RMK A01 T00021002  RH  097%=      5-min Rain = 0
KSW1 150938Z 27006KT 00/M00 A3018 RMK A01 T00021002  RH  097%=      5-min Rain = 0
KSW1 150939Z 27006KT 00/M00 A3018 RMK A01 T00021002  RH  097%=      5-min Rain = 0
KSW1 150940Z 27006KT 00/M00 A3018 RMK A01 T00011002  RH  097%=      5-min Rain = 0
KSW1 150941Z 27006KT 00/M00 A3018 RMK A01 T00011002  RH  098%=      5-min Rain = 0
KSW1 150942Z 27006KT 00/M00 A3018 RMK A01 T00011002  RH  098%=      5-min Rain = 0
KSW1 150943Z 27006KT 00/M00 A3018 RMK A01 T00011002  RH  098%=      5-min Rain = 0
KSW1 150944Z 27006KT 00/M00 A3018 RMK A01 T00021001  RH  098%=      5-min Rain = 0
KSW1 150945Z 27007KT 00/M00 A3018 RMK A01 T00021002  RH  098%=      5-min Rain = 0
KSW1 150946Z 27006KT 00/M00 A3018 RMK A01 T00021001  RH  098%=      5-min Rain = 0
KSW1 150947Z 27006KT 00/M00 A3018 RMK A01 T00031001  RH  098%=      5-min Rain = 0
KSW1 150948Z 27006KT 00/M00 A3018 RMK A01 T00021001  RH  097%=      5-min Rain = 0
KSW1 150949Z 27006KT 00/M00 A3018 RMK A01 T00031001  RH  097%=      5-min Rain = 0
KSW1 150950Z 26006KT 00/M00 A3018 RMK A01 T00031001  RH  097%=      5-min Rain = 0
KSW1 150951Z 27006KT 00/M00 A3018 RMK A01 T00031001  RH  097%=      5-min Rain = 0
KSW1 150952Z 27005KT 00/M00 A3018 RMK A01 T00031001  RH  097%=      5-min Rain = 0
KSW1 150953Z 27005KT 00/M00 A3018 RMK A01 T00031001  RH  097%=      5-min Rain = 0
KSW1 150954Z 27005KT 00/M00 A3018 RMK A01 T00031001  RH  097%=      5-min Rain = 0
KSW1 150955Z 27005KT 00/M00 A3018 RMK A01 T00031001  RH  097%=      5-min Rain = 0
KSW1 150956Z 27005KT 00/M00 A3018 RMK A01 T00031001  RH  097%=      5-min Rain = 0
KSW1 150957Z 27005KT 00/M00 A3018 RMK A01 T00021002  RH  097%=      5-min Rain = 0
KSW1 150958Z 27005KT 00/M00 A3018 RMK A01 T00021002  RH  097%=      5-min Rain = 0
KSW1 150959Z 26004KT 00/M00 A3018 RMK A01 T00021002  RH  097%=      5-min Rain = 0
KSW1 151000Z 26005KT 00/M00 A3018 RMK A01 T00021002  RH  097%=      5-min Rain = 0
KSW1 151001Z 26005KT 00/M00 A3018 RMK A01 T00011002  RH  097%=      5-min Rain = 0
KSW1 151002Z 26005KT 00/M00 A3018 RMK A01 T00021002  RH  097%=      5-min Rain = 0
KSW1 151003Z 26005KT 00/M00 A3018 RMK A01 T00021002  RH  097%=      5-min Rain = 0
KSW1 151004Z 25004KT 00/M00 A3018 RMK A01 T00021002  RH  097%=      5-min Rain = 0
KSW1 151005Z 25005KT 00/M00 A3018 RMK A01 T00021002  RH  097%=      5-min Rain = 0
KSW1 151006Z 25005KT 00/M00 A3018 RMK A01 T00021002  RH  097%=      5-min Rain = 0
KSW1 151007Z 25005KT 00/M00 A3018 RMK A01 T00011002  RH  097%=      5-min Rain = 0
KSW1 151008Z 25005KT 00/M00 A3018 RMK A01 T00011002  RH  098%=      5-min Rain = 0
KSW1 151009Z 25004KT 00/M00 A3018 RMK A01 T00011003  RH  097%=      5-min Rain = 0
KSW1 151010Z 24004KT 00/M00 A3018 RMK A01 T00011003  RH  097%=      5-min Rain = 0
KSW1 151011Z 24004KT 00/M00 A3018 RMK A01 T00011003  RH  098%=      5-min Rain = 0
KSW1 151012Z 23004KT 00/00 A3018 RMK A01 T000000-3  RH  098%=      5-min Rain = 0
KSW1 151013Z 23003KT 00/00 A3018 RMK A01 T000000-3  RH  098%=      5-min Rain = 0
KSW1 151014Z 24004KT 00/00 A3018 RMK A01 T00-000-4  RH  098%=      5-min Rain = 0
KSW1 151015Z 24004KT M00/M00 A3018 RMK A01 T10011004  RH  098%=      5-min Rain = 0
KSW1 151016Z 24004KT M00/M00 A3018 RMK A01 T10011004  RH  098%=      5-min Rain = 0
KSW1 151017Z 24004KT M00/M00 A3018 RMK A01 T10011004  RH  098%=      5-min Rain = 0
KSW1 151018Z 25004KT M00/M00 A3018 RMK A01 T10011004  RH  098%=      5-min Rain = 0
KSW1 151019Z 25004KT M00/M00 A3018 RMK A01 T10011004  RH  098%=      5-min Rain = 0
KSW1 151020Z 25004KT M00/M00 A3018 RMK A01 T10011004  RH  098%=      5-min Rain = 0
KSW1 151021Z 25004KT M00/M00 A3018 RMK A01 T10011004  RH  098%=      5-min Rain = 0
KSW1 151022Z 25004KT M00/M00 A3018 RMK A01 T10011004  RH  097%=      5-min Rain = 0
KSW1 151023Z 25004KT M00/M00 A3018 RMK A01 T10011004  RH  097%=      5-min Rain = 0
KSW1 151024Z 25004KT M00/M01 A3018 RMK A01 T10011005  RH  097%=      5-min Rain = 0
KSW1 151025Z 26004KT M00/M01 A3018 RMK A01 T10021005  RH  097%=      5-min Rain = 0
KSW1 151026Z 26004KT M00/M01 A3018 RMK A01 T10021006  RH  097%=      5-min Rain = 0
KSW1 151027Z 26004KT M00/M01 A3018 RMK A01 T10021006  RH  097%=      5-min Rain = 0
KSW1 151028Z 26004KT M00/M01 A3018 RMK A01 T10021006  RH  097%=      5-min Rain = 0
KSW1 151029Z 26004KT M00/M01 A3018 RMK A01 T10031006  RH  097%=      5-min Rain = 0
KSW1 151030Z 26005KT M00/M01 A3018 RMK A01 T10031006  RH  097%=      5-min Rain = 0
KSW1 151031Z 27005KT M00/M01 A3018 RMK A01 T10031006  RH  097%=      5-min Rain = 0
KSW1 151032Z 27005KT M00/M01 A3018 RMK A01 T10031006  RH  097%=      5-min Rain = 0
KSW1 151033Z 27005KT M00/M01 A3018 RMK A01 T10031006  RH  097%=      5-min Rain = 0
KSW1 151034Z 27005KT M00/M01 A3018 RMK A01 T10031007  RH  097%=      5-min Rain = 0
KSW1 151035Z 27005KT M00/M01 A3018 RMK A01 T10031006  RH  097%=      5-min Rain = 0
KSW1 151036Z 27006KT M00/M01 A3018 RMK A01 T10031006  RH  098%=      5-min Rain = 0
KSW1 151037Z 27005KT M00/M01 A3018 RMK A01 T10021006  RH  098%=      5-min Rain = 0
KSW1 151038Z 27005KT M00/M01 A3018 RMK A01 T10031006  RH  098%=      5-min Rain = 0
KSW1 151039Z 27005KT M00/M01 A3018 RMK A01 T10021006  RH  098%=      5-min Rain = 0
KSW1 151040Z 27006KT M00/M01 A3018 RMK A01 T10021006  RH  098%=      5-min Rain = 0
KSW1 151041Z 27006KT M00/M01 A3018 RMK A01 T10021005  RH  098%=      5-min Rain = 0
KSW1 151042Z 27005KT M00/M01 A3018 RMK A01 T10021005  RH  098%=      5-min Rain = 0
KSW1 151043Z 27005KT M00/M01 A3018 RMK A01 T10021006  RH  098%=      5-min Rain = 0
KSW1 151044Z 27005KT M00/M01 A3018 RMK A01 T10021006  RH  098%=      5-min Rain = 0
KSW1 151045Z 27005KT M00/M01 A3018 RMK A01 T10021005  RH  098%=      5-min Rain = 0
KSW1 151046Z 27005KT M00/M01 A3018 RMK A01 T10021005  RH  098%=      5-min Rain = 0
KSW1 151047Z 27005KT M00/M01 A3018 RMK A01 T10011005  RH  098%=      5-min Rain = 0
KSW1 151048Z 27006KT M00/M01 A3018 RMK A01 T10021005  RH  098%=      5-min Rain = 0
KSW1 151049Z 27006KT M00/M01 A3018 RMK A01 T10021006  RH  098%=      5-min Rain = 0
KSW1 151050Z 27006KT M00/M01 A3018 RMK A01 T10021005  RH  098%=      5-min Rain = 0
KSW1 151051Z 27006KT M00/M01 A3018 RMK A01 T10021006  RH  098%=      5-min Rain = 0
KSW1 151052Z 27006KT M00/M01 A3018 RMK A01 T10021006  RH  098%=      5-min Rain = 0
KSW1 151053Z 27005KT M00/M01 A3018 RMK A01 T10031006  RH  098%=      5-min Rain = 0
KSW1 151054Z 27005KT M00/M01 A3018 RMK A01 T10021006  RH  098%=      5-min Rain = 0
KSW1 151055Z 27005KT M00/M01 A3018 RMK A01 T10021006  RH  098%=      5-min Rain = 0
KSW1 151056Z 27005KT M00/M01 A3018 RMK A01 T10031006  RH  098%=      5-min Rain = 0
KSW1 151057Z 27005KT M00/M01 A3018 RMK A01 T10031006  RH  098%=      5-min Rain = 0
KSW1 151058Z 27005KT M00/M01 A3018 RMK A01 T10031006  RH  098%=      5-min Rain = 0
KSW1 151059Z 27005KT M00/M01 A3018 RMK A01 T10031006  RH  098%=      5-min Rain = 0
KSW1 151100Z 27005KT M00/M01 A3018 RMK A01 T10041007  RH  098%=      5-min Rain = 0
KSW1 151101Z 27005KT M00/M01 A3018 RMK A01 T10041007  RH  098%=      5-min Rain = 0
KSW1 151102Z 27005KT M00/M01 A3018 RMK A01 T10031006  RH  098%=      5-min Rain = 0
KSW1 151103Z 28005KT M00/M01 A3018 RMK A01 T10041007  RH  098%=      5-min Rain = 0
KSW1 151104Z 27005KT M00/M01 A3018 RMK A01 T10041007  RH  098%=      5-min Rain = 0
KSW1 151105Z 28006KT M00/M01 A3018 RMK A01 T10041007  RH  098%=      5-min Rain = 0
KSW1 151106Z 27006KT M00/M01 A3018 RMK A01 T10041007  RH  098%=      5-min Rain = 0
KSW1 151107Z 27006KT M00/M01 A3018 RMK A01 T10041007  RH  098%=      5-min Rain = 0
KSW1 151108Z 27005KT M00/M01 A3018 RMK A01 T10041007  RH  098%=      5-min Rain = 0
KSW1 151109Z 27006KT M00/M01 A3018 RMK A01 T10041007  RH  098%=      5-min Rain = 0
KSW1 151110Z 27005KT M00/M01 A3018 RMK A01 T10041007  RH  098%=      5-min Rain = 0
KSW1 151111Z 27005KT M00/M01 A3018 RMK A01 T10041007  RH  098%=      5-min Rain = 0
KSW1 151112Z 27006KT M00/M01 A3018 RMK A01 T10041007  RH  098%=      5-min Rain = 0
KSW1 151113Z 27006KT M01/M01 A3018 RMK A01 T10051008  RH  098%=      5-min Rain = 0
KSW1 151114Z 27006KT M01/M01 A3018 RMK A01 T10051008  RH  098%=      5-min Rain = 0
KSW1 151115Z 27006KT M01/M01 A3018 RMK A01 T10051007  RH  098%=      5-min Rain = 0
KSW1 151116Z 27006KT M01/M01 A3018 RMK A01 T10051007  RH  098%=      5-min Rain = 0
KSW1 151117Z 27005KT M01/M01 A3018 RMK A01 T10051007  RH  098%=      5-min Rain = 0
KSW1 151118Z 27006KT M00/M01 A3018 RMK A01 T10041007  RH  098%=      5-min Rain = 0
KSW1 151119Z 28005KT M00/M01 A3018 RMK A01 T10041007  RH  098%=      5-min Rain = 0
KSW1 151120Z 27005KT M01/M01 A3018 RMK A01 T10051007  RH  098%=      5-min Rain = 0
KSW1 151121Z 27006KT M01/M01 A3018 RMK A01 T10051008  RH  098%=      5-min Rain = 0
KSW1 151122Z 27005KT M01/M01 A3018 RMK A01 T10051008  RH  098%=      5-min Rain = 0
KSW1 151123Z 27005KT M01/M01 A3018 RMK A01 T10051008  RH  098%=      5-min Rain = 0
KSW1 151124Z 27005KT M01/M01 A3018 RMK A01 T10051008  RH  098%=      5-min Rain = 0
KSW1 151125Z 27005KT M01/M01 A3018 RMK A01 T10051008  RH  098%=      5-min Rain = 0
KSW1 151126Z 27005KT M01/M01 A3018 RMK A01 T10051008  RH  098%=      5-min Rain = 0
KSW1 151127Z 27005KT M01/M01 A3018 RMK A01 T10051008  RH  098%=      5-min Rain = 0
KSW1 151128Z 27005KT M01/M01 A3018 RMK A01 T10051008  RH  098%=      5-min Rain = 0
KSW1 151129Z 27005KT M01/M01 A3018 RMK A01 T10051008  RH  098%=      5-min Rain = 0
KSW1 151130Z 27005KT M01/M01 A3018 RMK A01 T10051008  RH  098%=      5-min Rain = 0
KSW1 151131Z 27005KT M01/M01 A3018 RMK A01 T10051008  RH  098%=      5-min Rain = 0
KSW1 151132Z 27005KT M01/M01 A3018 RMK A01 T10061008  RH  098%=      5-min Rain = 0
KSW1 151133Z 27005KT M01/M01 A3018 RMK A01 T10061008  RH  098%=      5-min Rain = 0
KSW1 151134Z 27005KT M01/M01 A3018 RMK A01 T10061008  RH  098%=      5-min Rain = 0
KSW1 151135Z 27005KT M01/M01 A3018 RMK A01 T10061008  RH  098%=      5-min Rain = 0
KSW1 151136Z 28005KT M01/M01 A3018 RMK A01 T10061008  RH  098%=      5-min Rain = 0
KSW1 151137Z 28005KT M01/M01 A3019 RMK A01 T10061008  RH  098%=      5-min Rain = 0
KSW1 151138Z 28006KT M01/M01 A3019 RMK A01 T10061008  RH  098%=      5-min Rain = 0
KSW1 151139Z 27006KT M01/M01 A3019 RMK A01 T10061008  RH  098%=      5-min Rain = 0
KSW1 151140Z 27006KT M01/M01 A3019 RMK A01 T10061008  RH  098%=      5-min Rain = 0
KSW1 151141Z 28005KT M01/M01 A3019 RMK A01 T10061008  RH  098%=      5-min Rain = 0
KSW1 151142Z 28005KT M01/M01 A3019 RMK A01 T10061009  RH  098%=      5-min Rain = 0
KSW1 151143Z 27006KT M01/M01 A3019 RMK A01 T10071009  RH  098%=      5-min Rain = 0
KSW1 151144Z 27006KT M01/M01 A3019 RMK A01 T10071009  RH  098%=      5-min Rain = 0
KSW1 151145Z 27005KT M01/M01 A3019 RMK A01 T10071009  RH  098%=      5-min Rain = 0
KSW1 151146Z 27005KT M01/M01 A3019 RMK A01 T10071009  RH  098%=      5-min Rain = 0
KSW1 151147Z 27005KT M01/M01 A3019 RMK A01 T10071009  RH  099%=      5-min Rain = 0
KSW1 151148Z 27005KT M01/M01 A3019 RMK A01 T10071009  RH  099%=      5-min Rain = 0
KSW1 151149Z 27005KT M01/M01 A3019 RMK A01 T10071009  RH  099%=      5-min Rain = 0
KSW1 151150Z 27005KT M01/M01 A3019 RMK A01 T10071009  RH  099%=      5-min Rain = 0
KSW1 151151Z 27006KT M01/M01 A3019 RMK A01 T10071009  RH  098%=      5-min Rain = 0
KSW1 151152Z 26005KT M01/M01 A3019 RMK A01 T10071009  RH  099%=      5-min Rain = 0
KSW1 151153Z 26006KT M01/M01 A3019 RMK A01 T10071009  RH  099%=      5-min Rain = 0
KSW1 151154Z 26006KT M01/M01 A3019 RMK A01 T10071009  RH  099%=      5-min Rain = 0
KSW1 151155Z 27005KT M01/M01 A3019 RMK A01 T10061008  RH  099%=      5-min Rain = 0
KSW1 151156Z 26005KT M01/M01 A3019 RMK A01 T10071009  RH  099%=      5-min Rain = 0
KSW1 151157Z 26005KT M01/M01 A3019 RMK A01 T10071009  RH  099%=      5-min Rain = 0
KSW1 151158Z 26005KT M01/M01 A3019 RMK A01 T10071009  RH  099%=      5-min Rain = 0
KSW1 151159Z 27005KT M01/M01 A3019 RMK A01 T10081010  RH  098%=      5-min Rain = 0
KSW1 151200Z 27005KT M01/M01 A3019 RMK A01 T10081010  RH  099%=      5-min Rain = 0
KSW1 151201Z 27005KT M01/M01 A3019 RMK A01 T10081010  RH  099%=      5-min Rain = 0
KSW1 151202Z 27005KT M01/M01 A3019 RMK A01 T10081010  RH  099%=      5-min Rain = 0
KSW1 151203Z 27005KT M01/M01 A3019 RMK A01 T10081010  RH  099%=      5-min Rain = 0
KSW1 151204Z 27005KT M01/M01 A3019 RMK A01 T10081010  RH  099%=      5-min Rain = 0
KSW1 151205Z 27005KT M01/M01 A3019 RMK A01 T10081010  RH  099%=      5-min Rain = 0
KSW1 151206Z 27005KT M01/M01 A3019 RMK A01 T10081010  RH  099%=      5-min Rain = 0
KSW1 151207Z 27005KT M01/M01 A3019 RMK A01 T10081010  RH  099%=      5-min Rain = 0
KSW1 151208Z 27005KT M01/M01 A3019 RMK A01 T10081010  RH  099%=      5-min Rain = 0
KSW1 151209Z 27005KT M01/M01 A3019 RMK A01 T10081010  RH  099%=      5-min Rain = 0
KSW1 151210Z 27005KT M01/M01 A3019 RMK A01 T10081010  RH  099%=      5-min Rain = 0
KSW1 151211Z 27004KT M01/M01 A3019 RMK A01 T10081010  RH  099%=      5-min Rain = 0
KSW1 151212Z 27004KT M01/M01 A3018 RMK A01 T10081010  RH  098%=      5-min Rain = 0
KSW1 151213Z 27005KT M01/M01 A3018 RMK A01 T10081010  RH  098%=      5-min Rain = 0
KSW1 151214Z 27004KT M01/M01 A3018 RMK A01 T10081010  RH  098%=      5-min Rain = 0
KSW1 151215Z 27005KT M01/M01 A3018 RMK A01 T10081010  RH  098%=      5-min Rain = 0
KSW1 151216Z 27005KT M01/M01 A3018 RMK A01 T10081010  RH  098%=      5-min Rain = 0
KSW1 151217Z 27005KT M01/M01 A3019 RMK A01 T10081010  RH  098%=      5-min Rain = 0
KSW1 151218Z 27005KT M01/M01 A3019 RMK A01 T10081010  RH  098%=      5-min Rain = 0
KSW1 151219Z 27005KT M01/M01 A3019 RMK A01 T10081011  RH  098%=      5-min Rain = 0
KSW1 151220Z 27005KT M01/M01 A3019 RMK A01 T10081010  RH  098%=      5-min Rain = 0
KSW1 151221Z 27005KT M01/M01 A3019 RMK A01 T10081011  RH  098%=      5-min Rain = 0
KSW1 151222Z 27005KT M01/M01 A3019 RMK A01 T10081011  RH  098%=      5-min Rain = 0
KSW1 151223Z 27005KT M01/M01 A3019 RMK A01 T10081010  RH  098%=      5-min Rain = 0
KSW1 151224Z 27005KT M01/M01 A3019 RMK A01 T10081011  RH  098%=      5-min Rain = 0
KSW1 151225Z 27004KT M01/M01 A3019 RMK A01 T10081011  RH  098%=      5-min Rain = 0
KSW1 151226Z 27005KT M01/M01 A3018 RMK A01 T10081011  RH  098%=      5-min Rain = 0
KSW1 151227Z 26005KT M01/M01 A3018 RMK A01 T10081011  RH  098%=      5-min Rain = 0
KSW1 151228Z 27004KT M01/M01 A3018 RMK A01 T10081011  RH  098%=      5-min Rain = 0
KSW1 151229Z 27004KT M01/M01 A3018 RMK A01 T10081011  RH  098%=      5-min Rain = 0
KSW1 151230Z 27005KT M01/M01 A3018 RMK A01 T10081010  RH  098%=      5-min Rain = 0
KSW1 151231Z 27005KT M01/M01 A3019 RMK A01 T10081010  RH  098%=      5-min Rain = 0
KSW1 151232Z 27004KT M01/M01 A3019 RMK A01 T10081011  RH  098%=      5-min Rain = 0
KSW1 151233Z 27004KT M01/M01 A3019 RMK A01 T10081011  RH  098%=      5-min Rain = 0
KSW1 151234Z 27004KT M01/M01 A3019 RMK A01 T10081010  RH  098%=      5-min Rain = 0
KSW1 151235Z 27005KT M01/M01 A3019 RMK A01 T10081011  RH  098%=      5-min Rain = 0
KSW1 151236Z 27005KT M01/M01 A3019 RMK A01 T10081011  RH  098%=      5-min Rain = 0
KSW1 151237Z 26005KT M01/M01 A3019 RMK A01 T10081011  RH  098%=      5-min Rain = 0
KSW1 151238Z 27005KT M01/M01 A3019 RMK A01 T10081011  RH  098%=      5-min Rain = 0
KSW1 151239Z 27005KT M01/M01 A3019 RMK A01 T10091011  RH  098%=      5-min Rain = 0
KSW1 151240Z 27005KT M01/M01 A3019 RMK A01 T10091011  RH  098%=      5-min Rain = 0
KSW1 151241Z 27005KT M01/M01 A3019 RMK A01 T10081011  RH  098%=      5-min Rain = 0
KSW1 151242Z 26005KT M01/M01 A3019 RMK A01 T10091011  RH  098%=      5-min Rain = 0
KSW1 151243Z 26005KT M01/M01 A3019 RMK A01 T10091011  RH  098%=      5-min Rain = 0
KSW1 151244Z 27005KT M01/M01 A3019 RMK A01 T10091011  RH  098%=      5-min Rain = 0
KSW1 151245Z 27005KT M01/M01 A3019 RMK A01 T10091011  RH  098%=      5-min Rain = 0
KSW1 151246Z 27005KT M01/M01 A3019 RMK A01 T10091011  RH  098%=      5-min Rain = 0
KSW1 151247Z 27005KT M01/M01 A3019 RMK A01 T10091011  RH  098%=      5-min Rain = 0
KSW1 151248Z 27005KT M01/M01 A3019 RMK A01 T10091011  RH  098%=      5-min Rain = 0
KSW1 151249Z 28004KT M01/M01 A3019 RMK A01 T10081011  RH  098%=      5-min Rain = 0
KSW1 151250Z 27004KT M01/M01 A3019 RMK A01 T10081011  RH  098%=      5-min Rain = 0
KSW1 151251Z 26005KT M01/M01 A3019 RMK A01 T10091011  RH  098%=      5-min Rain = 0
KSW1 151252Z 27005KT M01/M01 A3019 RMK A01 T10091011  RH  098%=      5-min Rain = 0
KSW1 151253Z 27005KT M01/M01 A3019 RMK A01 T10081011  RH  098%=      5-min Rain = 0
KSW1 151254Z 27005KT M01/M01 A3019 RMK A01 T10081011  RH  098%=      5-min Rain = 0
KSW1 151255Z 27005KT M01/M01 A3019 RMK A01 T10081011  RH  098%=      5-min Rain = 0
KSW1 151256Z 27005KT M01/M01 A3019 RMK A01 T10081011  RH  098%=      5-min Rain = 0
KSW1 151257Z 27005KT M01/M01 A3019 RMK A01 T10081011  RH  098%=      5-min Rain = 0
KSW1 151258Z 27005KT M01/M01 A3019 RMK A01 T10081011  RH  098%=      5-min Rain = 0
KSW1 151259Z 27005KT M01/M01 A3019 RMK A01 T10081011  RH  098%=      5-min Rain = 0
KSW1 151300Z 27005KT M01/M01 A3019 RMK A01 T10081011  RH  098%=      5-min Rain = 0
KSW1 151301Z 27005KT M01/M01 A3019 RMK A01 T10081011  RH  098%=      5-min Rain = 0
KSW1 151302Z 27005KT M01/M01 A3019 RMK A01 T10081011  RH  098%=      5-min Rain = 0
KSW1 151303Z 27005KT M01/M01 A3019 RMK A01 T10081011  RH  098%=      5-min Rain = 0
KSW1 151304Z 27005KT M01/M01 A302 RMK A01 T10081011  RH  098%=      5-min Rain = 0
KSW1 151305Z 27005KT M01/M01 A302 RMK A01 T10081011  RH  098%=      5-min Rain = 0
KSW1 151306Z 27005KT M01/M01 A302 RMK A01 T10081011  RH  098%=      5-min Rain = 0
KSW1 151307Z 27005KT M01/M01 A302 RMK A01 T10071010  RH  098%=      5-min Rain = 0
KSW1 151308Z 27004KT M01/M01 A302 RMK A01 T10081011  RH  098%=      5-min Rain = 0
KSW1 151309Z 27005KT M01/M01 A302 RMK A01 T10081011  RH  098%=      5-min Rain = 0
KSW1 151310Z 27005KT M01/M01 A302 RMK A01 T10081011  RH  098%=      5-min Rain = 0
KSW1 151311Z 27005KT M01/M01 A302 RMK A01 T10081011  RH  098%=      5-min Rain = 0
KSW1 151312Z 27005KT M01/M01 A302 RMK A01 T10081011  RH  098%=      5-min Rain = 0
KSW1 151313Z 27004KT M01/M01 A302 RMK A01 T10081011  RH  098%=      5-min Rain = 0
KSW1 151314Z 27004KT M01/M01 A302 RMK A01 T10081011  RH  098%=      5-min Rain = 0
KSW1 151315Z 27004KT M01/M01 A302 RMK A01 T10081012  RH  098%=      5-min Rain = 0
KSW1 151316Z 27004KT M01/M01 A302 RMK A01 T10091012  RH  098%=      5-min Rain = 0
KSW1 151317Z 27004KT M01/M01 A302 RMK A01 T10091012  RH  098%=      5-min Rain = 0
KSW1 151318Z 27004KT M01/M01 A302 RMK A01 T10081012  RH  098%=      5-min Rain = 0
KSW1 151319Z 27004KT M01/M01 A302 RMK A01 T10081012  RH  098%=      5-min Rain = 0
KSW1 151320Z 27004KT M01/M01 A302 RMK A01 T10091012  RH  098%=      5-min Rain = 0
KSW1 151321Z 27004KT M01/M01 A302 RMK A01 T10091012  RH  098%=      5-min Rain = 0
KSW1 151322Z 27004KT M01/M01 A302 RMK A01 T10091012  RH  098%=      5-min Rain = 0
KSW1 151323Z 27004KT M01/M01 A302 RMK A01 T10091012  RH  098%=      5-min Rain = 0
KSW1 151324Z 27004KT M01/M01 A3021 RMK A01 T10091012  RH  098%=      5-min Rain = 0
KSW1 151325Z 27004KT M01/M01 A3021 RMK A01 T10091012  RH  098%=      5-min Rain = 0
KSW1 151326Z 27004KT M01/M01 A3021 RMK A01 T10091013  RH  098%=      5-min Rain = 0
KSW1 151327Z 26004KT M01/M01 A3021 RMK A01 T10101013  RH  098%=      5-min Rain = 0
KSW1 151328Z 26004KT M01/M01 A3021 RMK A01 T10101013  RH  098%=      5-min Rain = 0
KSW1 151329Z 26004KT M01/M01 A3021 RMK A01 T10101013  RH  098%=      5-min Rain = 0
KSW1 151330Z 25004KT M01/M01 A3021 RMK A01 T10101013  RH  098%=      5-min Rain = 0
KSW1 151331Z 25003KT M01/M01 A3021 RMK A01 T10091012  RH  098%=      5-min Rain = 0
KSW1 151332Z 25003KT M01/M01 A3021 RMK A01 T10091012  RH  098%=      5-min Rain = 0
KSW1 151333Z 24003KT M01/M01 A3021 RMK A01 T10091012  RH  098%=      5-min Rain = 0
KSW1 151334Z 24003KT M01/M01 A3021 RMK A01 T10081011  RH  098%=      5-min Rain = 0
KSW1 151335Z 24003KT M01/M01 A3021 RMK A01 T10081012  RH  098%=      5-min Rain = 0
KSW1 151336Z 24002KT M01/M01 A3021 RMK A01 T10081011  RH  098%=      5-min Rain = 0
KSW1 151337Z 23002KT M01/M01 A3021 RMK A01 T10081011  RH  098%=      5-min Rain = 0
KSW1 151338Z 24002KT M01/M01 A3021 RMK A01 T10081011  RH  098%=      5-min Rain = 0
KSW1 151339Z 24002KT M01/M01 A3021 RMK A01 T10071011  RH  098%=      5-min Rain = 0
KSW1 151340Z 25002KT M01/M01 A3021 RMK A01 T10081011  RH  097%=      5-min Rain = 0
KSW1 151341Z 25002KT M01/M01 A3021 RMK A01 T10071011  RH  097%=      5-min Rain = 0
KSW1 151342Z 23002KT M01/M01 A3021 RMK A01 T10071011  RH  097%=      5-min Rain = 0
KSW1 151343Z 24001KT M01/M01 A3022 RMK A01 T10071011  RH  097%=      5-min Rain = 0
KSW1 151344Z 23001KT M01/M01 A3022 RMK A01 T10071011  RH  097%=      5-min Rain = 0
KSW1 151345Z 24001KT M01/M01 A3022 RMK A01 T10061011  RH  097%=      5-min Rain = 0
KSW1 151346Z 25001KT M01/M01 A3022 RMK A01 T10061010  RH  097%=      5-min Rain = 0
KSW1 151347Z 24002KT M01/M01 A3022 RMK A01 T10061010  RH  097%=      5-min Rain = 0
KSW1 151348Z 24002KT M01/M01 A3022 RMK A01 T10061010  RH  097%=      5-min Rain = 0
KSW1 151349Z 24003KT M01/M01 A3022 RMK A01 T10051010  RH  097%=      5-min Rain = 0
KSW1 151350Z 25002KT M01/M01 A3022 RMK A01 T10051010  RH  097%=      5-min Rain = 0
KSW1 151351Z 25002KT M01/M01 A3022 RMK A01 T10051009  RH  097%=      5-min Rain = 0
KSW1 151352Z 25002KT M00/M01 A3022 RMK A01 T10041009  RH  096%=      5-min Rain = 0
KSW1 151353Z 26002KT M00/M01 A3022 RMK A01 T10041009  RH  096%=      5-min Rain = 0
KSW1 151354Z 27002KT M00/M01 A3022 RMK A01 T10041009  RH  096%=      5-min Rain = 0
KSW1 151355Z 27003KT M00/M01 A3022 RMK A01 T10031009  RH  096%=      5-min Rain = 0
KSW1 151356Z 26003KT M00/M01 A3022 RMK A01 T10031009  RH  096%=      5-min Rain = 0
KSW1 151357Z 26003KT M00/M01 A3022 RMK A01 T10031009  RH  096%=      5-min Rain = 0
KSW1 151358Z 27003KT M00/M01 A3022 RMK A01 T10031009  RH  096%=      5-min Rain = 0
KSW1 151359Z 27003KT M00/M01 A3022 RMK A01 T10021009  RH  096%=      5-min Rain = 0
KSW1 151400Z 28004KT M00/M01 A3022 RMK A01 T10021009  RH  096%=      5-min Rain = 0
KSW1 151401Z 27004KT M00/M01 A3022 RMK A01 T10021008  RH  095%=      5-min Rain = 0
KSW1 151402Z 28004KT M00/M01 A3022 RMK A01 T10011008  RH  095%=      5-min Rain = 0
KSW1 151403Z 27003KT M00/M01 A3022 RMK A01 T10011008  RH  095%=      5-min Rain = 0
KSW1 151404Z 27003KT M00/M01 A3023 RMK A01 T10011008  RH  095%=      5-min Rain = 0
KSW1 151405Z 28003KT 00/01 A3023 RMK A01 T000000-7  RH  095%=      5-min Rain = 0
KSW1 151406Z 27004KT 00/01 A3023 RMK A01 T000000-7  RH  095%=      5-min Rain = 0
KSW1 151407Z 27003KT 00/M01 A3023 RMK A01 T00011006  RH  095%=      5-min Rain = 0
KSW1 151408Z 27003KT 00/M01 A3023 RMK A01 T00011006  RH  095%=      5-min Rain = 0
KSW1 151409Z 27003KT 00/M01 A3023 RMK A01 T00021006  RH  095%=      5-min Rain = 0
KSW1 151410Z 27003KT 00/M01 A3023 RMK A01 T00021005  RH  095%=      5-min Rain = 0
KSW1 151411Z 27004KT 00/M01 A3023 RMK A01 T00031005  RH  094%=      5-min Rain = 0
KSW1 151412Z 27003KT 00/M01 A3023 RMK A01 T00031005  RH  094%=      5-min Rain = 0
KSW1 151413Z 27003KT 00/M00 A3023 RMK A01 T00041004  RH  094%=      5-min Rain = 0
KSW1 151414Z 27003KT 01/M00 A3023 RMK A01 T00051004  RH  094%=      5-min Rain = 0
KSW1 151415Z 28003KT 01/M00 A3023 RMK A01 T00051003  RH  094%=      5-min Rain = 0
KSW1 151416Z 28002KT 01/M00 A3023 RMK A01 T00051003  RH  094%=      5-min Rain = 0
KSW1 151417Z 27002KT 01/M00 A3024 RMK A01 T00061003  RH  094%=      5-min Rain = 0
KSW1 151418Z 28001KT 01/M00 A3024 RMK A01 T00061003  RH  094%=      5-min Rain = 0
KSW1 151419Z 28001KT 01/M00 A3024 RMK A01 T00071002  RH  094%=      5-min Rain = 0
KSW1 151420Z 28002KT 01/M00 A3024 RMK A01 T00081001  RH  094%=      5-min Rain = 0
KSW1 151421Z 27003KT 01/M00 A3024 RMK A01 T00081001  RH  094%=      5-min Rain = 0
KSW1 151422Z 28002KT 01/M00 A3024 RMK A01 T00081001  RH  093%=      5-min Rain = 0
KSW1 151423Z 28002KT 01/M00 A3024 RMK A01 T00081002  RH  093%=      5-min Rain = 0
KSW1 151424Z 28003KT 01/M00 A3024 RMK A01 T00091001  RH  093%=      5-min Rain = 0
KSW1 151425Z 27003KT 01/M00 A3024 RMK A01 T00091001  RH  093%=      5-min Rain = 0
KSW1 151426Z 27003KT 01/M00 A3024 RMK A01 T00101001  RH  093%=      5-min Rain = 0
KSW1 151427Z 27003KT 01/M00 A3024 RMK A01 T00101001  RH  093%=      5-min Rain = 0
KSW1 151428Z 27002KT 01/M00 A3024 RMK A01 T00101001  RH  093%=      5-min Rain = 0
KSW1 151429Z 28003KT 01/00 A3024 RMK A01 T00110000  RH  093%=      5-min Rain = 0
KSW1 151430Z 27003KT 01/00 A3024 RMK A01 T00110001  RH  093%=      5-min Rain = 0
KSW1 151431Z 27003KT 01/00 A3024 RMK A01 T00120001  RH  093%=      5-min Rain = 0
KSW1 151432Z 27003KT 01/00 A3024 RMK A01 T00120001  RH  093%=      5-min Rain = 0
KSW1 151433Z 28003KT 01/00 A3024 RMK A01 T00120001  RH  092%=      5-min Rain = 0
KSW1 151434Z 28002KT 01/00 A3024 RMK A01 T00120001  RH  092%=      5-min Rain = 0
KSW1 151435Z 28002KT 01/00 A3024 RMK A01 T00120001  RH  092%=      5-min Rain = 0
KSW1 151436Z 28001KT 01/00 A3024 RMK A01 T00130002  RH  093%=      5-min Rain = 0
KSW1 151437Z 29002KT 01/00 A3024 RMK A01 T00130003  RH  093%=      5-min Rain = 0
KSW1 151438Z 29002KT 01/00 A3024 RMK A01 T00140004  RH  093%=      5-min Rain = 0
KSW1 151439Z 30003KT 02/00 A3024 RMK A01 T00150004  RH  092%=      5-min Rain = 0
KSW1 151440Z 29002KT 02/00 A3024 RMK A01 T00160004  RH  092%=      5-min Rain = 0
KSW1 151441Z 30003KT 02/00 A3024 RMK A01 T00170004  RH  091%=      5-min Rain = 0
KSW1 151442Z 31003KT 02/01 A3024 RMK A01 T00180007  RH  092%=      5-min Rain = 0
KSW1 151443Z 31004KT 02/01 A3024 RMK A01 T00200008  RH  092%=      5-min Rain = 0
KSW1 151444Z 31003KT 02/01 A3024 RMK A01 T00220007  RH  090%=      5-min Rain = 0
KSW1 151445Z 31005KT 02/01 A3025 RMK A01 T00240008  RH  089%=      5-min Rain = 0
KSW1 151446Z 31005KT 03/01 A3025 RMK A01 T00260006  RH  087%=      5-min Rain = 0
KSW1 151447Z 31004KT 03/00 A3025 RMK A01 T00270004  RH  085%=      5-min Rain = 0
KSW1 151448Z 31003KT 03/01 A3025 RMK A01 T00290005  RH  085%=      5-min Rain = 0.01
KSW1 151449Z 32004KT 03/01 A3025 RMK A01 T00300005  RH  084%=      5-min Rain = 0
KSW1 151450Z 32005KT 03/01 A3025 RMK A01 T00310005  RH  083%=      5-min Rain = 0
KSW1 151451Z 32006KT 03/00 A3025 RMK A01 T00310004  RH  082%=      5-min Rain = 0
KSW1 151452Z 32004KT 03/01 A3025 RMK A01 T00320005  RH  083%=      5-min Rain = 0
KSW1 151453Z 32005KT 03/01 A3025 RMK A01 T00320005  RH  082%=      5-min Rain = 0
KSW1 151454Z 32005KT 03/01 A3025 RMK A01 T00330006  RH  083%=      5-min Rain = 0
KSW1 151455Z 32005KT 03/01 A3025 RMK A01 T00340008  RH  083%=      5-min Rain = 0
KSW1 151456Z 33007KT 04/01 A3025 RMK A01 T00350006  RH  081%=      5-min Rain = 0
KSW1 151457Z 33006KT 04/00 A3025 RMK A01 T00370004  RH  079%=      5-min Rain = 0
KSW1 151458Z 33006KT 04/01 A3025 RMK A01 T00380005  RH  079%=      5-min Rain = 0
KSW1 151459Z 33006KT 04/01 A3025 RMK A01 T00400006  RH  079%=      5-min Rain = 0
KSW1 151500Z 33007KT 04/00 A3025 RMK A01 T00400004  RH  077%=      5-min Rain = 0
KSW1 151501Z 33006KT 04/00 A3025 RMK A01 T00410004  RH  076%=      5-min Rain = 0
KSW1 151502Z 33005KT 04/01 A3025 RMK A01 T00420005  RH  077%=      5-min Rain = 0
KSW1 151503Z 33007KT 04/01 A3026 RMK A01 T00430006  RH  077%=      5-min Rain = 0
KSW1 151504Z 34007KT 04/01 A3026 RMK A01 T00440005  RH  076%=      5-min Rain = 0
KSW1 151505Z 34008KT 05/01 A3026 RMK A01 T00450006  RH  076%=      5-min Rain = 0
KSW1 151506Z 34008KT 05/00 A3026 RMK A01 T00450004  RH  074%=      5-min Rain = 0
KSW1 151507Z 34007KT 05/00 A3026 RMK A01 T00450003  RH  074%=      5-min Rain = 0
KSW1 151508Z 34008KT 05/01 A3026 RMK A01 T00460005  RH  075%=      5-min Rain = 0
KSW1 151509Z 34008KT 05/00 A3026 RMK A01 T00460003  RH  074%=      5-min Rain = 0
KSW1 151510Z 35007KT 05/00 A3026 RMK A01 T00460004  RH  074%=      5-min Rain = 0
KSW1 151511Z 35008KT 05/00 A3026 RMK A01 T00470003  RH  073%=      5-min Rain = 0
KSW1 151512Z 35007KT 05/00 A3026 RMK A01 T00470001  RH  072%=      5-min Rain = 0
KSW1 151513Z 35006KT 05/00 A3026 RMK A01 T00470003  RH  073%=      5-min Rain = 0
KSW1 151514Z 35008KT 05/01 A3026 RMK A01 T00490007  RH  074%=      5-min Rain = 0
KSW1 151515Z 35006KT 05/01 A3026 RMK A01 T00500006  RH  073%=      5-min Rain = 0
KSW1 151516Z 34008KT 05/01 A3026 RMK A01 T00510008  RH  074%=      5-min Rain = 0
KSW1 151517Z 35007KT 05/01 A3026 RMK A01 T00520005  RH  071%=      5-min Rain = 0
KSW1 151518Z 35008KT 05/01 A3026 RMK A01 T00520005  RH  072%=      5-min Rain = 0
KSW1 151519Z 35006KT 05/01 A3026 RMK A01 T00520005  RH  072%=      5-min Rain = 0
KSW1 151520Z 34008KT 05/01 A3026 RMK A01 T00530009  RH  073%=      5-min Rain = 0
KSW1 151521Z 35008KT 05/00 A3026 RMK A01 T00530002  RH  070%=      5-min Rain = 0
KSW1 151522Z 35008KT 05/00 A3026 RMK A01 T00530004  RH  070%=      5-min Rain = 0
KSW1 151523Z 35009KT 05/00 A3027 RMK A01 T00530004  RH  070%=      5-min Rain = 0
KSW1 151524Z 35009KT 05/00 A3027 RMK A01 T00530001  RH  069%=      5-min Rain = 0
KSW1 151525Z 35009KT 05/00 A3027 RMK A01 T00530001  RH  069%=      5-min Rain = 0
KSW1 151526Z 36009KT 05/M00 A3027 RMK A01 T00531001  RH  068%=      5-min Rain = 0
KSW1 151527Z 35009KT 05/00 A3027 RMK A01 T005400-0  RH  068%=      5-min Rain = 0
KSW1 151528Z 35010KT 05/M00 A3027 RMK A01 T00541001  RH  067%=      5-min Rain = 0
KSW1 151529Z 35011KT 05/M00 A3027 RMK A01 T00541002  RH  067%=      5-min Rain = 0
KSW1 151530Z 35010KT 06/M00 A3027 RMK A01 T00551002  RH  067%=      5-min Rain = 0
KSW1 151531Z 35010KT 05/M00 A3027 RMK A01 T00541002  RH  067%=      5-min Rain = 0
KSW1 151532Z 36010KT 06/M00 A3027 RMK A01 T00551002  RH  067%=      5-min Rain = 0
KSW1 151533Z 36008KT 06/M00 A3027 RMK A01 T00551001  RH  067%=      5-min Rain = 0
KSW1 151534Z 00010KT 06/00 A3027 RMK A01 T005600-0  RH  067%=      5-min Rain = 0
KSW1 151535Z 36009KT 06/M00 A3027 RMK A01 T00571001  RH  066%=      5-min Rain = 0
KSW1 151536Z 01009KT 06/00 A3027 RMK A01 T00570000  RH  067%=      5-min Rain = 0
KSW1 151537Z 36008KT 06/00 A3027 RMK A01 T005800-0  RH  066%=      5-min Rain = 0
KSW1 151538Z 00007KT 06/00 A3027 RMK A01 T005900-0  RH  066%=      5-min Rain = 0
KSW1 151539Z 35010KT 06/00 A3027 RMK A01 T00590002  RH  067%=      5-min Rain = 0
KSW1 151540Z 00009KT 06/00 A3027 RMK A01 T00600001  RH  066%=      5-min Rain = 0
KSW1 151541Z 00010KT 06/00 A3027 RMK A01 T006000-0  RH  065%=      5-min Rain = 0
KSW1 151542Z 01009KT 06/M00 A3027 RMK A01 T00591002  RH  065%=      5-min Rain = 0
KSW1 151543Z 35009KT 06/M00 A3027 RMK A01 T00591002  RH  065%=      5-min Rain = 0
KSW1 151544Z 36010KT 06/M00 A3027 RMK A01 T00601001  RH  065%=      5-min Rain = 0
KSW1 151545Z 36010KT 06/M00 A3027 RMK A01 T00601002  RH  064%=      5-min Rain = 0
KSW1 151546Z 36009KT 06/M00 A3027 RMK A01 T00611002  RH  064%=      5-min Rain = 0
KSW1 151547Z 36008KT 06/M00 A3027 RMK A01 T00611002  RH  064%=      5-min Rain = 0
KSW1 151548Z 35008KT 06/00 A3027 RMK A01 T00620000  RH  065%=      5-min Rain = 0
KSW1 151549Z 35009KT 06/M00 A3027 RMK A01 T00631002  RH  063%=      5-min Rain = 0
KSW1 151550Z 01009KT 06/M00 A3027 RMK A01 T00621002  RH  063%=      5-min Rain = 0
KSW1 151551Z 36007KT 06/M00 A3027 RMK A01 T00621003  RH  063%=      5-min Rain = 0
KSW1 151552Z 34007KT 06/00 A3027 RMK A01 T00630002  RH  065%=      5-min Rain = 0
KSW1 151553Z 36010KT 07/00 A3027 RMK A01 T00650002  RH  064%=      5-min Rain = 0
KSW1 151554Z 01010KT 07/M00 A3027 RMK A01 T00651001  RH  063%=      5-min Rain = 0
KSW1 151555Z 02009KT 07/M00 A3027 RMK A01 T00651003  RH  062%=      5-min Rain = 0
KSW1 151556Z 00008KT 07/M00 A3027 RMK A01 T00651004  RH  061%=      5-min Rain = 0
KSW1 151557Z 01011KT 07/00 A3027 RMK A01 T006700-0  RH  062%=      5-min Rain = 0
KSW1 151558Z 01009KT 07/M00 A3027 RMK A01 T00671004  RH  060%=      5-min Rain = 0
KSW1 151559Z 01008KT 07/M00 A3027 RMK A01 T00671004  RH  061%=      5-min Rain = 0
KSW1 151600Z 01009KT 07/M01 A3027 RMK A01 T00671005  RH  060%=      5-min Rain = 0
KSW1 151601Z 01009KT 07/M01 A3027 RMK A01 T00661005  RH  060%=      5-min Rain = 0
KSW1 151602Z 00009KT 07/M01 A3027 RMK A01 T00651005  RH  061%=      5-min Rain = 0
KSW1 151603Z 01009KT 07/M00 A3027 RMK A01 T00671004  RH  061%=      5-min Rain = 0
KSW1 151604Z 01008KT 07/M01 A3027 RMK A01 T00681005  RH  060%=      5-min Rain = 0
KSW1 151605Z 01007KT 07/M00 A3027 RMK A01 T00681004  RH  060%=      5-min Rain = 0
KSW1 151606Z 35009KT 07/M00 A3027 RMK A01 T00691002  RH  060%=      5-min Rain = 0
KSW1 151607Z 35010KT 07/M00 A3027 RMK A01 T00701003  RH  060%=      5-min Rain = 0
KSW1 151608Z 35010KT 07/M01 A3027 RMK A01 T00701005  RH  059%=      5-min Rain = 0
KSW1 151609Z 36011KT 07/M01 A3027 RMK A01 T00691005  RH  059%=      5-min Rain = 0
KSW1 151610Z 01010KT 07/M01 A3028 RMK A01 T00691006  RH  059%=      5-min Rain = 0
KSW1 151611Z 36009KT 07/M01 A3028 RMK A01 T00681007  RH  059%=      5-min Rain = 0
KSW1 151612Z 01008KT 07/M00 A3028 RMK A01 T00691002  RH  060%=      5-min Rain = 0
KSW1 151613Z 01008KT 07/M00 A3028 RMK A01 T00711003  RH  059%=      5-min Rain = 0
KSW1 151614Z 00008KT 07/M00 A3028 RMK A01 T00711001  RH  060%=      5-min Rain = 0
KSW1 151615Z 36010KT 07/M00 A3028 RMK A01 T00721001  RH  060%=      5-min Rain = 0
KSW1 151616Z 00009KT 07/M00 A3028 RMK A01 T00721001  RH  060%=      5-min Rain = 0
KSW1 151617Z 01009KT 07/M00 A3028 RMK A01 T00721004  RH  058%=      5-min Rain = 0
KSW1 151618Z 01007KT 07/M00 A3028 RMK A01 T00721001  RH  060%=      5-min Rain = 0
KSW1 151619Z 01009KT 08/00 A3028 RMK A01 T00750002  RH  060%=      5-min Rain = 0
KSW1 151620Z 01009KT 08/M00 A3028 RMK A01 T00761002  RH  058%=      5-min Rain = 0
KSW1 151621Z 01009KT 07/M00 A3028 RMK A01 T00741003  RH  058%=      5-min Rain = 0
KSW1 151622Z 00010KT 07/M00 A3028 RMK A01 T00731001  RH  060%=      5-min Rain = 0
KSW1 151623Z 01010KT 07/M00 A3028 RMK A01 T00721004  RH  058%=      5-min Rain = 0
KSW1 151624Z 01009KT 07/M00 A3028 RMK A01 T00721001  RH  060%=      5-min Rain = 0
KSW1 151625Z 02010KT 07/M00 A3028 RMK A01 T00731003  RH  059%=      5-min Rain = 0
KSW1 151626Z 02008KT 07/M01 A3028 RMK A01 T00731006  RH  057%=      5-min Rain = 0
KSW1 151627Z 02009KT 07/M00 A3028 RMK A01 T00721003  RH  059%=      5-min Rain = 0
KSW1 151628Z 01009KT 08/00 A3028 RMK A01 T00750000  RH  059%=      5-min Rain = 0
KSW1 151629Z 02008KT 08/M00 A3028 RMK A01 T00771002  RH  057%=      5-min Rain = 0
KSW1 151630Z 02007KT 08/00 A3028 RMK A01 T00780003  RH  059%=      5-min Rain = 0
KSW1 151631Z 00007KT 08/00 A3028 RMK A01 T00790001  RH  058%=      5-min Rain = 0
KSW1 151632Z 01009KT 08/M00 A3028 RMK A01 T00771003  RH  057%=      5-min Rain = 0
KSW1 151633Z 00009KT 08/M00 A3028 RMK A01 T00751002  RH  058%=      5-min Rain = 0
KSW1 151634Z 01008KT 07/M00 A3028 RMK A01 T00731003  RH  058%=      5-min Rain = 0
KSW1 151635Z 02009KT 07/M01 A3028 RMK A01 T00731005  RH  058%=      5-min Rain = 0
KSW1 151636Z 02010KT 07/M01 A3028 RMK A01 T00731007  RH  057%=      5-min Rain = 0
KSW1 151637Z 02008KT 07/M01 A3028 RMK A01 T00741007  RH  057%=      5-min Rain = 0
KSW1 151638Z 02009KT 07/M01 A3028 RMK A01 T00741006  RH  057%=      5-min Rain = 0
KSW1 151639Z 00008KT 07/M01 A3028 RMK A01 T00741005  RH  057%=      5-min Rain = 0
KSW1 151640Z 01008KT 08/M00 A3028 RMK A01 T00751004  RH  057%=      5-min Rain = 0
KSW1 151641Z 00011KT 08/M00 A3028 RMK A01 T00771001  RH  058%=      5-min Rain = 0
KSW1 151642Z 00011KT 08/M00 A3028 RMK A01 T00781002  RH  057%=      5-min Rain = 0
KSW1 151643Z 01007KT 08/M00 A3028 RMK A01 T00781003  RH  057%=      5-min Rain = 0
KSW1 151644Z 02006KT 08/M00 A3028 RMK A01 T00771003  RH  057%=      5-min Rain = 0
KSW1 151645Z 02007KT 08/00 A3028 RMK A01 T007700-0  RH  058%=      5-min Rain = 0
KSW1 151646Z 35010KT 08/00 A3028 RMK A01 T007800-0  RH  058%=      5-min Rain = 0
KSW1 151647Z 35008KT 08/00 A3028 RMK A01 T00810000  RH  057%=      5-min Rain = 0
KSW1 151648Z 36010KT 08/M00 A3028 RMK A01 T00821003  RH  055%=      5-min Rain = 0
KSW1 151649Z 01010KT 08/M01 A3028 RMK A01 T00821005  RH  054%=      5-min Rain = 0
KSW1 151650Z 01008KT 08/M01 A3028 RMK A01 T00801006  RH  055%=      5-min Rain = 0
KSW1 151651Z 01006KT 08/M00 A3028 RMK A01 T00791004  RH  056%=      5-min Rain = 0
KSW1 151652Z 01007KT 08/M00 A3028 RMK A01 T00791001  RH  057%=      5-min Rain = 0
KSW1 151653Z 35011KT 08/M00 A3028 RMK A01 T00791001  RH  057%=      5-min Rain = 0
KSW1 151654Z 00009KT 08/M00 A3028 RMK A01 T00801002  RH  056%=      5-min Rain = 0
KSW1 151655Z 02009KT 08/M00 A3028 RMK A01 T00801003  RH  056%=      5-min Rain = 0
KSW1 151656Z 02008KT 08/M01 A3028 RMK A01 T00791005  RH  055%=      5-min Rain = 0
KSW1 151657Z 00009KT 08/M00 A3028 RMK A01 T00791001  RH  057%=      5-min Rain = 0
KSW1 151658Z 35007KT 08/M00 A3028 RMK A01 T00791001  RH  057%=      5-min Rain = 0
KSW1 151659Z 00009KT 08/00 A3028 RMK A01 T00790001  RH  058%=      5-min Rain = 0
KSW1 151700Z 36008KT 08/M00 A3028 RMK A01 T00821002  RH  056%=      5-min Rain = 0
KSW1 151701Z 35008KT 08/00 A3028 RMK A01 T00840000  RH  055%=      5-min Rain = 0
KSW1 151702Z 36006KT 08/M01 A3028 RMK A01 T00841006  RH  053%=      5-min Rain = 0
KSW1 151703Z 00009KT 08/M01 A3028 RMK A01 T00811005  RH  054%=      5-min Rain = 0
KSW1 151704Z 00009KT 08/M00 A3028 RMK A01 T00811002  RH  056%=      5-min Rain = 0
KSW1 151705Z 01010KT 08/00 A3028 RMK A01 T00810001  RH  057%=      5-min Rain = 0
KSW1 151706Z 36008KT 08/00 A3028 RMK A01 T00830004  RH  057%=      5-min Rain = 0
KSW1 151707Z 36006KT 08/00 A3028 RMK A01 T00840002  RH  056%=      5-min Rain = 0
KSW1 151708Z 35006KT 09/00 A3028 RMK A01 T00850002  RH  056%=      5-min Rain = 0
KSW1 151709Z 35008KT 09/00 A3028 RMK A01 T00850001  RH  056%=      5-min Rain = 0
KSW1 151710Z 35009KT 09/00 A3028 RMK A01 T00870001  RH  055%=      5-min Rain = 0
KSW1 151711Z 00008KT 09/M00 A3028 RMK A01 T00871001  RH  054%=      5-min Rain = 0
KSW1 151712Z 02008KT 09/M00 A3028 RMK A01 T00851001  RH  055%=      5-min Rain = 0
KSW1 151713Z 36007KT 09/00 A3028 RMK A01 T00850001  RH  056%=      5-min Rain = 0
KSW1 151714Z 00009KT 09/00 A3028 RMK A01 T00860001  RH  055%=      5-min Rain = 0
KSW1 151715Z 02007KT 08/M00 A3028 RMK A01 T00831002  RH  055%=      5-min Rain = 0
KSW1 151716Z 34008KT 08/01 A3028 RMK A01 T00830005  RH  058%=      5-min Rain = 0
KSW1 151717Z 34008KT 09/00 A3028 RMK A01 T00850002  RH  056%=      5-min Rain = 0
KSW1 151718Z 00004KT 08/M00 A3028 RMK A01 T00831001  RH  056%=      5-min Rain = 0
KSW1 151719Z 36008KT 08/00 A3028 RMK A01 T00830003  RH  057%=      5-min Rain = 0
KSW1 151720Z 00006KT 09/01 A3028 RMK A01 T00860005  RH  057%=      5-min Rain = 0
KSW1 151721Z 01007KT 09/01 A3028 RMK A01 T00910006  RH  055%=      5-min Rain = 0
KSW1 151722Z 36005KT 09/M00 A3028 RMK A01 T00901003  RH  052%=      5-min Rain = 0
KSW1 151723Z 35007G12KT 09/M00 A3028 RMK A01 T00881002  RH  054%=      5-min Rain = 0
KSW1 151724Z 36010KT 09/M00 A3028 RMK A01 T00881001  RH  054%=      5-min Rain = 0
KSW1 151725Z 01009KT 09/M00 A3028 RMK A01 T00891002  RH  053%=      5-min Rain = 0
KSW1 151726Z 36007KT 09/00 A3028 RMK A01 T00900001  RH  054%=      5-min Rain = 0
KSW1 151727Z 00006KT 09/00 A3028 RMK A01 T00910001  RH  053%=      5-min Rain = 0
KSW1 151728Z 35007G12KT 09/00 A3028 RMK A01 T00910003  RH  054%=      5-min Rain = 0
KSW1 151729Z 35009KT 09/00 A3028 RMK A01 T00930003  RH  054%=      5-min Rain = 0
KSW1 151730Z 36010KT 09/M00 A3028 RMK A01 T00931003  RH  051%=      5-min Rain = 0
KSW1 151731Z 35009KT 09/M00 A3028 RMK A01 T00911003  RH  052%=      5-min Rain = 0
KSW1 151732Z 00008KT 09/M00 A3028 RMK A01 T00891003  RH  053%=      5-min Rain = 0
KSW1 151733Z 34009KT 09/00 A3028 RMK A01 T008900-0  RH  053%=      5-min Rain = 0
KSW1 151734Z 35008KT 09/M00 A3028 RMK A01 T00901002  RH  052%=      5-min Rain = 0
KSW1 151735Z 36009KT 09/M00 A3028 RMK A01 T00891004  RH  052%=      5-min Rain = 0
KSW1 151736Z 00009KT 09/00 A3028 RMK A01 T008800-0  RH  054%=      5-min Rain = 0
KSW1 151737Z 35010KT 09/00 A3028 RMK A01 T00890001  RH  054%=      5-min Rain = 0
KSW1 151738Z 35007KT 09/00 A3028 RMK A01 T009000-0  RH  053%=      5-min Rain = 0
KSW1 151739Z 03007KT 09/00 A3028 RMK A01 T00900001  RH  054%=      5-min Rain = 0
KSW1 151740Z 03006KT 09/00 A3028 RMK A01 T00910000  RH  053%=      5-min Rain = 0
KSW1 151741Z 01009KT 09/01 A3028 RMK A01 T00910005  RH  055%=      5-min Rain = 0
KSW1 151742Z 35010KT 09/00 A3028 RMK A01 T00920000  RH  053%=      5-min Rain = 0
KSW1 151743Z 36008KT 09/00 A3028 RMK A01 T00920002  RH  053%=      5-min Rain = 0
KSW1 151744Z 34007KT 09/00 A3028 RMK A01 T00940004  RH  053%=      5-min Rain = 0
KSW1 151745Z 36007KT 09/00 A3028 RMK A01 T00940002  RH  052%=      5-min Rain = 0
KSW1 151746Z 02008KT 09/00 A3028 RMK A01 T00930001  RH  053%=      5-min Rain = 0
KSW1 151747Z 02009KT 09/00 A3028 RMK A01 T00930000  RH  052%=      5-min Rain = 0
KSW1 151748Z 02009KT 09/00 A3028 RMK A01 T009300-0  RH  052%=      5-min Rain = 0
KSW1 151749Z 02009KT 09/00 A3028 RMK A01 T00930000  RH  052%=      5-min Rain = 0
KSW1 151750Z 00008KT 09/00 A3028 RMK A01 T00930003  RH  053%=      5-min Rain = 0
KSW1 151751Z 01009KT 10/00 A3028 RMK A01 T00960003  RH  052%=      5-min Rain = 0
KSW1 151752Z 02007KT 10/00 A3028 RMK A01 T00960001  RH  051%=      5-min Rain = 0
KSW1 151753Z 01007KT 09/M00 A3027 RMK A01 T00931001  RH  052%=      5-min Rain = 0
KSW1 151754Z 01007KT 09/M00 A3027 RMK A01 T00901001  RH  053%=      5-min Rain = 0
KSW1 151755Z 36005KT 09/M00 A3027 RMK A01 T00901001  RH  053%=      5-min Rain = 0
KSW1 151756Z 02006G11KT 09/00 A3027 RMK A01 T00900001  RH  053%=      5-min Rain = 0
KSW1 151757Z 02011G17KT 09/00 A3027 RMK A01 T00920003  RH  054%=      5-min Rain = 0
KSW1 151758Z 34009KT 10/01 A3027 RMK A01 T00950009  RH  055%=      5-min Rain = 0
KSW1 151759Z 34007KT 09/00 A3027 RMK A01 T00940003  RH  053%=      5-min Rain = 0
KSW1 151800Z 01005KT 09/01 A3027 RMK A01 T00920007  RH  055%=      5-min Rain = 0
KSW1 151801Z 01007KT 09/01 A3027 RMK A01 T00930007  RH  055%=      5-min Rain = 0
KSW1 151802Z 01008KT 10/01 A3027 RMK A01 T00950005  RH  053%=      5-min Rain = 0
KSW1 151803Z 02007KT 10/01 A3027 RMK A01 T00960008  RH  054%=      5-min Rain = 0
KSW1 151804Z 03006KT 10/01 A3027 RMK A01 T00980006  RH  053%=      5-min Rain = 0
KSW1 151805Z 03007KT 10/01 A3027 RMK A01 T00960005  RH  053%=      5-min Rain = 0
KSW1 151806Z 01009KT 10/01 A3027 RMK A01 T00950008  RH  055%=      5-min Rain = 0
KSW1 151807Z 36009KT 10/00 A3027 RMK A01 T00950004  RH  053%=      5-min Rain = 0
KSW1 151808Z 36008KT 09/00 A3027 RMK A01 T00940004  RH  053%=      5-min Rain = 0
KSW1 151809Z 02009KT 10/01 A3027 RMK A01 T00990009  RH  054%=      5-min Rain = 0
KSW1 151810Z 03009KT 10/01 A3027 RMK A01 T01020006  RH  052%=      5-min Rain = 0
KSW1 151811Z 02007KT 10/01 A3027 RMK A01 T00990007  RH  053%=      5-min Rain = 0
KSW1 151812Z 02007KT 10/00 A3027 RMK A01 T00970002  RH  052%=      5-min Rain = 0
KSW1 151813Z 02010KT 10/00 A3027 RMK A01 T00950001  RH  052%=      5-min Rain = 0
KSW1 151814Z 01009KT 10/M00 A3027 RMK A01 T00951001  RH  051%=      5-min Rain = 0
KSW1 151815Z 36006KT 10/M00 A3027 RMK A01 T00961004  RH  050%=      5-min Rain = 0
KSW1 151816Z 35009G14KT 10/00 A3027 RMK A01 T009500-0  RH  051%=      5-min Rain = 0
KSW1 151817Z 34009KT 10/01 A3027 RMK A01 T00980006  RH  053%=      5-min Rain = 0
KSW1 151818Z 35007KT 10/00 A3027 RMK A01 T00980002  RH  051%=      5-min Rain = 0
KSW1 151819Z 35006KT 10/M00 A3027 RMK A01 T00961003  RH  050%=      5-min Rain = 0
KSW1 151820Z 36009KT 10/00 A3027 RMK A01 T00960001  RH  051%=      5-min Rain = 0
KSW1 151821Z 01009KT 10/M00 A3027 RMK A01 T00991004  RH  049%=      5-min Rain = 0
KSW1 151822Z 00006KT 10/M01 A3027 RMK A01 T00971008  RH  048%=      5-min Rain = 0
KSW1 151823Z 01006KT 10/M00 A3027 RMK A01 T00961002  RH  050%=      5-min Rain = 0
KSW1 151824Z 36009KT 10/M00 A3026 RMK A01 T00981004  RH  049%=      5-min Rain = 0
KSW1 151825Z 36008KT 10/M00 A3026 RMK A01 T00991003  RH  049%=      5-min Rain = 0
KSW1 151826Z 36010KT 10/M01 A3026 RMK A01 T00991007  RH  048%=      5-min Rain = 0
KSW1 151827Z 35009KT 10/M01 A3026 RMK A01 T00971007  RH  048%=      5-min Rain = 0
KSW1 151828Z 35009KT 10/M00 A3026 RMK A01 T00991002  RH  049%=      5-min Rain = 0
KSW1 151829Z 33008KT 10/M01 A3026 RMK A01 T00991006  RH  048%=      5-min Rain = 0
KSW1 151830Z 35006KT 10/M00 A3026 RMK A01 T00971002  RH  050%=      5-min Rain = 0
KSW1 151831Z 36008KT 10/00 A3026 RMK A01 T00970000  RH  051%=      5-min Rain = 0
KSW1 151832Z 35009KT 10/M00 A3026 RMK A01 T00991002  RH  049%=      5-min Rain = 0
KSW1 151833Z 35011KT 10/M00 A3026 RMK A01 T00991004  RH  049%=      5-min Rain = 0
KSW1 151834Z 34009KT 10/M01 A3026 RMK A01 T00971008  RH  048%=      5-min Rain = 0
KSW1 151835Z 34006KT 09/M01 A3026 RMK A01 T00941008  RH  049%=      5-min Rain = 0
KSW1 151836Z 35005KT 09/M00 A3026 RMK A01 T00941003  RH  051%=      5-min Rain = 0
KSW1 151837Z 35007KT 10/00 A3026 RMK A01 T00980004  RH  052%=      5-min Rain = 0
KSW1 151838Z 34008KT 10/00 A3026 RMK A01 T01010002  RH  050%=      5-min Rain = 0
KSW1 151839Z 33007KT 10/M00 A3026 RMK A01 T00981001  RH  050%=      5-min Rain = 0
KSW1 151840Z 34007KT 10/M00 A3026 RMK A01 T00951002  RH  051%=      5-min Rain = 0
KSW1 151841Z 34007KT 10/M00 A3026 RMK A01 T00951001  RH  051%=      5-min Rain = 0
KSW1 151842Z 35009KT 10/00 A3026 RMK A01 T00970004  RH  053%=      5-min Rain = 0
KSW1 151843Z 00008G13KT 10/M00 A3026 RMK A01 T00981002  RH  050%=      5-min Rain = 0
KSW1 151844Z 36010KT 10/M01 A3026 RMK A01 T00971006  RH  049%=      5-min Rain = 0
KSW1 151845Z 34007KT 10/M01 A3026 RMK A01 T00981008  RH  048%=      5-min Rain = 0
KSW1 151846Z 35007KT 10/M00 A3026 RMK A01 T00971003  RH  050%=      5-min Rain = 0
KSW1 151847Z 35008KT 10/00 A3026 RMK A01 T01010002  RH  050%=      5-min Rain = 0
KSW1 151848Z 35005KT 10/M00 A3025 RMK A01 T01011004  RH  048%=      5-min Rain = 0
KSW1 151849Z 34006KT 10/M00 A3025 RMK A01 T01001003  RH  049%=      5-min Rain = 0
KSW1 151850Z 36008KT 10/M00 A3025 RMK A01 T00991002  RH  049%=      5-min Rain = 0
KSW1 151851Z 00010KT 10/M00 A3025 RMK A01 T00991004  RH  049%=      5-min Rain = 0
KSW1 151852Z 01005KT 10/M00 A3025 RMK A01 T01001003  RH  049%=      5-min Rain = 0
KSW1 151853Z 35009KT 10/M00 A3025 RMK A01 T01001001  RH  049%=      5-min Rain = 0
KSW1 151854Z 34009KT 10/M00 A3025 RMK A01 T01021004  RH  048%=      5-min Rain = 0
KSW1 151855Z 36006KT 10/00 A3025 RMK A01 T01030000  RH  049%=      5-min Rain = 0
KSW1 151856Z 00007KT 11/00 A3025 RMK A01 T01050001  RH  049%=      5-min Rain = 0
KSW1 151857Z 33006KT 10/M01 A3025 RMK A01 T01021005  RH  047%=      5-min Rain = 0
KSW1 151858Z 34007KT 10/00 A3025 RMK A01 T01000002  RH  051%=      5-min Rain = 0
KSW1 151859Z 01007KT 10/00 A3025 RMK A01 T01020004  RH  051%=      5-min Rain = 0
KSW1 151900Z 01008KT 11/01 A3025 RMK A01 T01070006  RH  050%=      5-min Rain = 0
KSW1 151901Z 00008KT 11/01 A3024 RMK A01 T01100005  RH  048%=      5-min Rain = 0
KSW1 151902Z 01010KT 11/01 A3024 RMK A01 T01100005  RH  048%=      5-min Rain = 0
KSW1 151903Z 02008KT 11/00 A3024 RMK A01 T010900-0  RH  047%=      5-min Rain = 0
KSW1 151904Z 02012KT 11/01 A3024 RMK A01 T01080005  RH  049%=      5-min Rain = 0
KSW1 151905Z 02008KT 11/00 A3024 RMK A01 T01080000  RH  047%=      5-min Rain = 0
KSW1 151906Z 02009KT 11/00 A3024 RMK A01 T01060000  RH  048%=      5-min Rain = 0
KSW1 151907Z 03008KT 11/00 A3024 RMK A01 T01060003  RH  049%=      5-min Rain = 0
KSW1 151908Z 03005KT 11/00 A3024 RMK A01 T01070004  RH  049%=      5-min Rain = 0
KSW1 151909Z 03009KT 11/01 A3024 RMK A01 T01080005  RH  049%=      5-min Rain = 0
KSW1 151910Z 03005KT 11/M00 A3024 RMK A01 T01061004  RH  047%=      5-min Rain = 0
KSW1 151911Z 01003KT 10/00 A3024 RMK A01 T01040003  RH  049%=      5-min Rain = 0
KSW1 151912Z 34006KT 11/00 A3024 RMK A01 T01050002  RH  049%=      5-min Rain = 0
KSW1 151913Z 34007KT 11/01 A3024 RMK A01 T01070008  RH  051%=      5-min Rain = 0
KSW1 151914Z 33007KT 11/01 A3024 RMK A01 T01070009  RH  051%=      5-min Rain = 0
KSW1 151915Z 33006KT 11/01 A3024 RMK A01 T01080009  RH  050%=      5-min Rain = 0
KSW1 151916Z 34005KT 11/00 A3024 RMK A01 T01070003  RH  049%=      5-min Rain = 0
KSW1 151917Z 32009KT 11/M00 A3024 RMK A01 T01061002  RH  047%=      5-min Rain = 0
KSW1 151918Z 33006KT 11/M01 A3024 RMK A01 T01051008  RH  045%=      5-min Rain = 0
KSW1 151919Z 01007KT 10/M01 A3024 RMK A01 T01031006  RH  047%=      5-min Rain = 0
KSW1 151920Z 36010KT 11/M00 A3024 RMK A01 T01061003  RH  047%=      5-min Rain = 0
KSW1 151921Z 35010KT 11/M01 A3024 RMK A01 T01061008  RH  045%=      5-min Rain = 0
KSW1 151922Z 35009KT 11/M01 A3024 RMK A01 T01061006  RH  046%=      5-min Rain = 0
KSW1 151923Z 34007KT 11/M01 A3023 RMK A01 T01061008  RH  045%=      5-min Rain = 0
KSW1 151924Z 32005KT 10/M01 A3023 RMK A01 T01041005  RH  047%=      5-min Rain = 0
KSW1 151925Z 36005KT 10/M01 A3023 RMK A01 T01031005  RH  047%=      5-min Rain = 0
KSW1 151926Z 00007KT 10/M01 A3023 RMK A01 T01031007  RH  047%=      5-min Rain = 0
KSW1 151927Z 01008KT 10/M01 A3023 RMK A01 T01041008  RH  046%=      5-min Rain = 0
KSW1 151928Z 00006KT 10/M00 A3023 RMK A01 T01041004  RH  047%=      5-min Rain = 0
KSW1 151929Z 35006KT 11/M01 A3023 RMK A01 T01051006  RH  046%=      5-min Rain = 0
KSW1 151930Z 34010G16KT 11/M00 A3023 RMK A01 T01061003  RH  047%=      5-min Rain = 0
KSW1 151931Z 33011KT 11/M01 A3023 RMK A01 T01071010  RH  044%=      5-min Rain = 0
KSW1 151932Z 33009KT 11/M01 A3023 RMK A01 T01061011  RH  044%=      5-min Rain = 0
KSW1 151933Z 01007KT 11/M01 A3023 RMK A01 T01061008  RH  045%=      5-min Rain = 0
KSW1 151934Z 01008KT 11/M01 A3023 RMK A01 T01061005  RH  046%=      5-min Rain = 0
KSW1 151935Z 34007KT 11/M00 A3023 RMK A01 T01091004  RH  045%=      5-min Rain = 0
KSW1 151936Z 35007KT 11/M00 A3023 RMK A01 T01111004  RH  045%=      5-min Rain = 0
KSW1 151937Z 33009KT 11/M01 A3023 RMK A01 T01141009  RH  043%=      5-min Rain = 0
KSW1 151938Z 34007KT 11/M01 A3023 RMK A01 T01111014  RH  042%=      5-min Rain = 0
KSW1 151939Z 34010KT 11/M01 A3022 RMK A01 T01091010  RH  044%=      5-min Rain = 0
KSW1 151940Z 34009KT 11/M01 A3023 RMK A01 T01101012  RH  043%=      5-min Rain = 0
KSW1 151941Z 34010KT 11/M02 A3023 RMK A01 T01081015  RH  042%=      5-min Rain = 0
KSW1 151942Z 32010KT 11/M01 A3022 RMK A01 T01071014  RH  043%=      5-min Rain = 0
KSW1 151943Z 32006KT 11/M01 A3022 RMK A01 T01051014  RH  043%=      5-min Rain = 0
KSW1 151944Z 32007KT 11/M02 A3022 RMK A01 T01051015  RH  043%=      5-min Rain = 0
KSW1 151945Z 34009KT 11/M01 A3022 RMK A01 T01051010  RH  045%=      5-min Rain = 0
KSW1 151946Z 01007KT 11/M01 A3022 RMK A01 T01091010  RH  044%=      5-min Rain = 0
KSW1 151947Z 35007KT 11/M02 A3022 RMK A01 T01091015  RH  042%=      5-min Rain = 0
KSW1 151948Z 35005KT 11/M01 A3022 RMK A01 T01101009  RH  043%=      5-min Rain = 0
KSW1 151949Z 35005KT 11/M01 A3022 RMK A01 T01131011  RH  042%=      5-min Rain = 0
KSW1 151950Z 33008KT 11/M01 A3022 RMK A01 T01131005  RH  044%=      5-min Rain = 0
KSW1 151951Z 35009KT 11/M00 A3022 RMK A01 T01121004  RH  045%=      5-min Rain = 0
KSW1 151952Z 35006KT 11/M01 A3022 RMK A01 T01121011  RH  042%=      5-min Rain = 0
KSW1 151953Z 35009KT 11/M01 A3022 RMK A01 T01091012  RH  043%=      5-min Rain = 0
KSW1 151954Z 34010KT 11/M01 A3022 RMK A01 T01101006  RH  045%=      5-min Rain = 0
KSW1 151955Z 36009KT 11/M01 A3022 RMK A01 T01121008  RH  043%=      5-min Rain = 0
KSW1 151956Z 02006KT 11/M01 A3022 RMK A01 T01101014  RH  042%=      5-min Rain = 0
KSW1 151957Z 34005KT 11/M01 A3022 RMK A01 T01101010  RH  043%=      5-min Rain = 0
KSW1 151958Z 32006KT 11/M00 A3021 RMK A01 T01131002  RH  045%=      5-min Rain = 0
KSW1 151959Z 00009KT 11/M01 A3021 RMK A01 T01141006  RH  043%=      5-min Rain = 0
KSW1 152000Z 02005KT 11/M01 A3021 RMK A01 T01121008  RH  043%=      5-min Rain = 0
KSW1 152001Z 01008KT 11/M01 A3021 RMK A01 T01111008  RH  044%=      5-min Rain = 0
KSW1 152002Z 00008KT 11/M00 A3021 RMK A01 T01111004  RH  045%=      5-min Rain = 0
KSW1 152003Z 00007KT 11/M01 A3021 RMK A01 T01121008  RH  044%=      5-min Rain = 0
KSW1 152004Z 33009KT 11/M00 A3021 RMK A01 T01111004  RH  045%=      5-min Rain = 0
KSW1 152005Z 35009KT 11/M01 A3021 RMK A01 T01111005  RH  045%=      5-min Rain = 0
KSW1 152006Z 01009KT 11/M01 A3021 RMK A01 T01121007  RH  044%=      5-min Rain = 0
KSW1 152007Z 01011KT 11/M01 A3021 RMK A01 T01141008  RH  043%=      5-min Rain = 0
KSW1 152008Z 01010KT 11/M01 A3021 RMK A01 T01141013  RH  041%=      5-min Rain = 0
KSW1 152009Z 02007KT 11/M01 A3021 RMK A01 T01121011  RH  042%=      5-min Rain = 0
KSW1 152010Z 36010KT 11/M01 A3021 RMK A01 T01131010  RH  043%=      5-min Rain = 0
KSW1 152011Z 35010KT 11/M01 A3021 RMK A01 T01141012  RH  042%=      5-min Rain = 0
KSW1 152012Z 34008KT 11/M01 A3021 RMK A01 T01131011  RH  042%=      5-min Rain = 0
KSW1 152013Z 32007KT 11/M01 A3021 RMK A01 T01121009  RH  043%=      5-min Rain = 0
KSW1 152014Z 32006KT 11/M01 A3021 RMK A01 T01121006  RH  044%=      5-min Rain = 0
KSW1 152015Z 34008KT 11/M01 A3021 RMK A01 T01121006  RH  044%=      5-min Rain = 0
KSW1 152016Z 35006KT 11/M01 A3021 RMK A01 T01121007  RH  044%=      5-min Rain = 0
KSW1 152017Z 33008KT 12/M00 A3021 RMK A01 T01161003  RH  044%=      5-min Rain = 0
KSW1 152018Z 33009KT 12/M01 A3021 RMK A01 T01161006  RH  043%=      5-min Rain = 0
KSW1 152019Z 32004KT 11/M01 A3021 RMK A01 T01131008  RH  043%=      5-min Rain = 0
KSW1 152020Z 31005KT 11/M01 A3021 RMK A01 T01121007  RH  043%=      5-min Rain = 0
KSW1 152021Z 33007KT 11/M01 A3021 RMK A01 T01111009  RH  043%=      5-min Rain = 0
KSW1 152022Z 32005KT 11/M01 A3021 RMK A01 T01101008  RH  044%=      5-min Rain = 0
KSW1 152023Z 31003KT 11/M02 A302 RMK A01 T01081015  RH  042%=      5-min Rain = 0
KSW1 152024Z 36005KT 11/M01 A302 RMK A01 T01071012  RH  044%=      5-min Rain = 0
KSW1 152025Z 35010G15KT 11/M01 A302 RMK A01 T01091005  RH  045%=      5-min Rain = 0
KSW1 152026Z 01009KT 12/M00 A3021 RMK A01 T01151002  RH  044%=      5-min Rain = 0
KSW1 152027Z 01006KT 12/M01 A302 RMK A01 T01161010  RH  042%=      5-min Rain = 0
KSW1 152028Z 02004KT 11/M01 A302 RMK A01 T01131009  RH  043%=      5-min Rain = 0
KSW1 152029Z 02006KT 11/M01 A302 RMK A01 T01141007  RH  043%=      5-min Rain = 0
KSW1 152030Z 02008KT 11/M01 A302 RMK A01 T01141009  RH  042%=      5-min Rain = 0
KSW1 152031Z 01009KT 11/M01 A302 RMK A01 T01141010  RH  042%=      5-min Rain = 0
KSW1 152032Z 01006KT 11/M01 A302 RMK A01 T01141010  RH  042%=      5-min Rain = 0
KSW1 152033Z 35008KT 11/M01 A302 RMK A01 T01131009  RH  043%=      5-min Rain = 0
KSW1 152034Z 34009KT 11/M01 A302 RMK A01 T01141008  RH  043%=      5-min Rain = 0
KSW1 152035Z 00006KT 11/M01 A302 RMK A01 T01141005  RH  044%=      5-min Rain = 0
KSW1 152036Z 01006KT 12/M00 A302 RMK A01 T01151003  RH  044%=      5-min Rain = 0
KSW1 152037Z 36006KT 12/M01 A302 RMK A01 T01171008  RH  042%=      5-min Rain = 0
KSW1 152038Z 35006KT 12/M01 A302 RMK A01 T01151011  RH  042%=      5-min Rain = 0
KSW1 152039Z 33007KT 11/M01 A302 RMK A01 T01141011  RH  042%=      5-min Rain = 0
KSW1 152040Z 33007KT 11/M01 A302 RMK A01 T01121005  RH  044%=      5-min Rain = 0
KSW1 152041Z 34004KT 11/M01 A302 RMK A01 T01131006  RH  044%=      5-min Rain = 0
KSW1 152042Z 34003KT 11/M00 A302 RMK A01 T01141002  RH  045%=      5-min Rain = 0
KSW1 152043Z 34009KT 12/M00 A302 RMK A01 T01171001  RH  044%=      5-min Rain = 0
KSW1 152044Z 00010KT 12/M01 A302 RMK A01 T01171006  RH  042%=      5-min Rain = 0
KSW1 152045Z 01010KT 12/M01 A302 RMK A01 T01161005  RH  043%=      5-min Rain = 0
KSW1 152046Z 01010KT 12/M01 A302 RMK A01 T01161005  RH  043%=      5-min Rain = 0
KSW1 152047Z 01011KT 12/M00 A302 RMK A01 T01171003  RH  044%=      5-min Rain = 0
KSW1 152048Z 01010KT 12/M01 A302 RMK A01 T01181005  RH  043%=      5-min Rain = 0
KSW1 152049Z 00009KT 12/M01 A302 RMK A01 T01171007  RH  042%=      5-min Rain = 0
KSW1 152050Z 00010KT 12/M01 A302 RMK A01 T01161006  RH  043%=      5-min Rain = 0
KSW1 152051Z 36009KT 12/M01 A302 RMK A01 T01161006  RH  043%=      5-min Rain = 0
KSW1 152052Z 35008KT 12/M01 A302 RMK A01 T01161008  RH  042%=      5-min Rain = 0
KSW1 152053Z 35009KT 12/M01 A3019 RMK A01 T01151008  RH  043%=      5-min Rain = 0
KSW1 152054Z 35009KT 12/M00 A3019 RMK A01 T01161003  RH  044%=      5-min Rain = 0
KSW1 152055Z 34005KT 12/M01 A3019 RMK A01 T01171005  RH  043%=      5-min Rain = 0
KSW1 152056Z 31004KT 12/M01 A3019 RMK A01 T01171005  RH  043%=      5-min Rain = 0
KSW1 152057Z 34004KT 12/00 A3019 RMK A01 T011700-0  RH  044%=      5-min Rain = 0
KSW1 152058Z 34003KT 12/M01 A3019 RMK A01 T01171005  RH  043%=      5-min Rain = 0
KSW1 152059Z 32003KT 12/M00 A3019 RMK A01 T01171004  RH  043%=      5-min Rain = 0
KSW1 152100Z 34004KT 12/M00 A3019 RMK A01 T01171004  RH  043%=      5-min Rain = 0
KSW1 152101Z 02006KT 12/M00 A3019 RMK A01 T01171003  RH  043%=      5-min Rain = 0
KSW1 152102Z 01008KT 12/00 A3019 RMK A01 T01190000  RH  044%=      5-min Rain = 0
KSW1 152103Z 01009KT 12/M01 A3019 RMK A01 T01201006  RH  042%=      5-min Rain = 0
KSW1 152104Z 01006KT 12/M01 A3019 RMK A01 T01201007  RH  042%=      5-min Rain = 0
KSW1 152105Z 02007KT 12/M01 A3019 RMK A01 T01191010  RH  041%=      5-min Rain = 0
KSW1 152106Z 35007KT 12/M01 A3019 RMK A01 T01181006  RH  042%=      5-min Rain = 0
KSW1 152107Z 01007KT 12/M01 A3019 RMK A01 T01171005  RH  043%=      5-min Rain = 0
KSW1 152108Z 02009KT 12/M00 A3019 RMK A01 T01171001  RH  044%=      5-min Rain = 0
KSW1 152109Z 35008KT 12/00 A3019 RMK A01 T01200001  RH  044%=      5-min Rain = 0
KSW1 152110Z 33008KT 12/M00 A3019 RMK A01 T01211003  RH  042%=      5-min Rain = 0
KSW1 152111Z 34007KT 12/00 A3019 RMK A01 T01190000  RH  044%=      5-min Rain = 0
KSW1 152112Z 35005KT 12/M01 A3019 RMK A01 T01181006  RH  042%=      5-min Rain = 0
KSW1 152113Z 01008KT 12/M01 A3019 RMK A01 T01161008  RH  042%=      5-min Rain = 0
KSW1 152114Z 00008KT 12/00 A3019 RMK A01 T011900-0  RH  044%=      5-min Rain = 0
KSW1 152115Z 36005KT 12/M01 A3019 RMK A01 T01201006  RH  042%=      5-min Rain = 0
KSW1 152116Z 01005KT 12/M00 A3019 RMK A01 T01191003  RH  043%=      5-min Rain = 0
KSW1 152117Z 35005KT 12/M01 A3019 RMK A01 T01191006  RH  042%=      5-min Rain = 0
KSW1 152118Z 01008KT 12/M00 A3019 RMK A01 T01191004  RH  043%=      5-min Rain = 0
KSW1 152119Z 01007KT 12/M01 A3019 RMK A01 T01191006  RH  042%=      5-min Rain = 0
KSW1 152120Z 35005KT 12/M01 A3019 RMK A01 T01191009  RH  041%=      5-min Rain = 0
KSW1 152121Z 01005KT 12/M01 A3019 RMK A01 T01211010  RH  040%=      5-min Rain = 0
KSW1 152122Z 03002KT 12/M02 A3018 RMK A01 T01201017  RH  039%=      5-min Rain = 0
KSW1 152123Z 03004KT 12/M01 A3018 RMK A01 T01181012  RH  041%=      5-min Rain = 0
KSW1 152124Z 00008KT 12/M01 A3019 RMK A01 T01181010  RH  041%=      5-min Rain = 0
KSW1 152125Z 35007KT 12/M01 A3019 RMK A01 T01211010  RH  040%=      5-min Rain = 0
KSW1 152126Z 00007KT 12/M01 A3018 RMK A01 T01221013  RH  039%=      5-min Rain = 0
KSW1 152127Z 35007KT 12/M02 A3018 RMK A01 T01221016  RH  038%=      5-min Rain = 0
KSW1 152128Z 34008KT 12/M02 A3018 RMK A01 T01211015  RH  039%=      5-min Rain = 0
KSW1 152129Z 32008KT 12/M02 A3018 RMK A01 T01191016  RH  039%=      5-min Rain = 0
KSW1 152130Z 34007KT 12/M02 A3018 RMK A01 T01171015  RH  040%=      5-min Rain = 0
KSW1 152131Z 33006KT 12/M01 A3018 RMK A01 T01191011  RH  041%=      5-min Rain = 0
KSW1 152132Z 01005KT 12/M01 A3018 RMK A01 T01201010  RH  041%=      5-min Rain = 0
KSW1 152133Z 01009KT 12/M01 A3018 RMK A01 T01221013  RH  039%=      5-min Rain = 0
KSW1 152134Z 02008KT 12/M02 A3018 RMK A01 T01211017  RH  038%=      5-min Rain = 0
KSW1 152135Z 02006KT 12/M02 A3018 RMK A01 T01191015  RH  039%=      5-min Rain = 0
KSW1 152136Z 36008KT 12/M01 A3018 RMK A01 T01201008  RH  041%=      5-min Rain = 0
KSW1 152137Z 36006KT 12/M01 A3018 RMK A01 T01211014  RH  039%=      5-min Rain = 0
KSW1 152138Z 00006KT 12/M01 A3018 RMK A01 T01191013  RH  040%=      5-min Rain = 0
KSW1 152139Z 34007KT 12/M01 A3018 RMK A01 T01191010  RH  041%=      5-min Rain = 0
KSW1 152140Z 33009KT 12/M01 A3018 RMK A01 T01191007  RH  042%=      5-min Rain = 0
KSW1 152141Z 00009KT 12/M01 A3018 RMK A01 T01181007  RH  042%=      5-min Rain = 0
KSW1 152142Z 36006KT 12/M01 A3018 RMK A01 T01171009  RH  041%=      5-min Rain = 0
KSW1 152143Z 35005KT 12/M01 A3018 RMK A01 T01161009  RH  042%=      5-min Rain = 0
KSW1 152144Z 34006KT 12/M01 A3018 RMK A01 T01161009  RH  042%=      5-min Rain = 0
KSW1 152145Z 36006KT 12/M01 A3018 RMK A01 T01161006  RH  043%=      5-min Rain = 0
KSW1 152146Z 00003KT 12/M01 A3018 RMK A01 T01161007  RH  042%=      5-min Rain = 0
KSW1 152147Z 01006KT 12/M01 A3018 RMK A01 T01171007  RH  042%=      5-min Rain = 0
KSW1 152148Z 35008KT 12/M01 A3018 RMK A01 T01191008  RH  041%=      5-min Rain = 0
KSW1 152149Z 33006KT 12/M01 A3018 RMK A01 T01201011  RH  040%=      5-min Rain = 0
KSW1 152150Z 35009KT 12/M01 A3018 RMK A01 T01201005  RH  042%=      5-min Rain = 0
KSW1 152151Z 36007KT 12/M01 A3018 RMK A01 T01191011  RH  040%=      5-min Rain = 0
KSW1 152152Z 00006KT 12/M01 A3018 RMK A01 T01191008  RH  041%=      5-min Rain = 0
KSW1 152153Z 02003KT 12/M01 A3018 RMK A01 T01201009  RH  041%=      5-min Rain = 0
KSW1 152154Z 02004KT 12/M01 A3018 RMK A01 T01211007  RH  041%=      5-min Rain = 0
KSW1 152155Z 03005KT 12/M01 A3018 RMK A01 T01201012  RH  040%=      5-min Rain = 0
KSW1 152156Z 04006KT 12/M01 A3018 RMK A01 T01181012  RH  040%=      5-min Rain = 0
KSW1 152157Z 01007KT 12/M01 A3018 RMK A01 T01191007  RH  042%=      5-min Rain = 0
KSW1 152158Z 35008KT 12/M01 A3018 RMK A01 T01201011  RH  040%=      5-min Rain = 0
KSW1 152159Z 01005KT 12/M01 A3018 RMK A01 T01201013  RH  040%=      5-min Rain = 0
KSW1 152200Z 01005KT 12/M01 A3018 RMK A01 T01191014  RH  040%=      5-min Rain = 0
KSW1 152201Z 02005KT 12/M01 A3018 RMK A01 T01191012  RH  040%=      5-min Rain = 0
KSW1 152202Z 03007KT 12/M01 A3018 RMK A01 T01191010  RH  041%=      5-min Rain = 0
KSW1 152203Z 03005KT 12/M01 A3018 RMK A01 T01191009  RH  041%=      5-min Rain = 0
KSW1 152204Z 35007KT 12/M01 A3018 RMK A01 T01191006  RH  042%=      5-min Rain = 0
KSW1 152205Z 34008KT 12/00 A3018 RMK A01 T012200-0  RH  043%=      5-min Rain = 0
KSW1 152206Z 34010KT 13/M01 A3018 RMK A01 T01251006  RH  041%=      5-min Rain = 0
KSW1 152207Z 33009KT 12/M01 A3018 RMK A01 T01241013  RH  039%=      5-min Rain = 0
KSW1 152208Z 33006KT 12/M01 A3018 RMK A01 T01221011  RH  040%=      5-min Rain = 0
KSW1 152209Z 35003KT 12/M02 A3018 RMK A01 T01211015  RH  039%=      5-min Rain = 0
KSW1 152210Z 35005KT 12/M02 A3018 RMK A01 T01211019  RH  038%=      5-min Rain = 0
KSW1 152211Z 35005KT 12/M02 A3018 RMK A01 T01201017  RH  039%=      5-min Rain = 0
KSW1 152212Z 35005KT 12/M01 A3018 RMK A01 T01201013  RH  040%=      5-min Rain = 0
KSW1 152213Z 35007KT 12/M01 A3018 RMK A01 T01221010  RH  040%=      5-min Rain = 0
KSW1 152214Z 00007KT 12/M01 A3018 RMK A01 T01221011  RH  040%=      5-min Rain = 0
KSW1 152215Z 34006KT 12/M01 A3018 RMK A01 T01211013  RH  040%=      5-min Rain = 0
KSW1 152216Z 33006KT 12/M01 A3018 RMK A01 T01201011  RH  040%=      5-min Rain = 0
KSW1 152217Z 34005KT 12/M01 A3018 RMK A01 T01191008  RH  041%=      5-min Rain = 0
KSW1 152218Z 33006KT 12/M01 A3018 RMK A01 T01191012  RH  040%=      5-min Rain = 0
KSW1 152219Z 34003KT 12/M01 A3018 RMK A01 T01191014  RH  040%=      5-min Rain = 0
KSW1 152220Z 32004KT 12/M02 A3018 RMK A01 T01181017  RH  039%=      5-min Rain = 0
KSW1 152221Z 30003KT 12/M02 A3017 RMK A01 T01181018  RH  039%=      5-min Rain = 0
KSW1 152222Z 34004KT 12/M02 A3017 RMK A01 T01171015  RH  040%=      5-min Rain = 0
KSW1 152223Z 32006KT 12/M01 A3017 RMK A01 T01181012  RH  041%=      5-min Rain = 0
KSW1 152224Z 32005KT 12/M01 A3017 RMK A01 T01181012  RH  041%=      5-min Rain = 0
KSW1 152225Z 33004KT 12/M01 A3017 RMK A01 T01181011  RH  041%=      5-min Rain = 0
KSW1 152226Z 36006KT 12/M01 A3017 RMK A01 T01181013  RH  040%=      5-min Rain = 0
KSW1 152227Z 01006KT 12/M02 A3017 RMK A01 T01181016  RH  039%=      5-min Rain = 0
KSW1 152228Z 36005KT 12/M02 A3017 RMK A01 T01181016  RH  039%=      5-min Rain = 0
KSW1 152229Z 01006KT 12/M01 A3017 RMK A01 T01191014  RH  040%=      5-min Rain = 0
KSW1 152230Z 02006KT 12/M02 A3017 RMK A01 T01201017  RH  039%=      5-min Rain = 0
KSW1 152231Z 00007KT 12/M02 A3017 RMK A01 T01191018  RH  038%=      5-min Rain = 0
KSW1 152232Z 33007KT 12/M02 A3017 RMK A01 T01181015  RH  040%=      5-min Rain = 0
KSW1 152233Z 34007KT 12/M02 A3017 RMK A01 T01191017  RH  039%=      5-min Rain = 0
KSW1 152234Z 34006KT 12/M02 A3017 RMK A01 T01191018  RH  038%=      5-min Rain = 0
KSW1 152235Z 00003KT 12/M02 A3017 RMK A01 T01191020  RH  038%=      5-min Rain = 0
KSW1 152236Z 33004KT 12/M02 A3017 RMK A01 T01191021  RH  037%=      5-min Rain = 0
KSW1 152237Z 32009KT 12/M02 A3017 RMK A01 T01191016  RH  039%=      5-min Rain = 0
KSW1 152238Z 35008KT 12/M01 A3017 RMK A01 T01191013  RH  040%=      5-min Rain = 0
KSW1 152239Z 01006KT 12/M01 A3017 RMK A01 T01191013  RH  040%=      5-min Rain = 0
KSW1 152240Z 00007KT 12/M02 A3017 RMK A01 T01201016  RH  039%=      5-min Rain = 0
KSW1 152241Z 00006KT 12/M02 A3017 RMK A01 T01201016  RH  039%=      5-min Rain = 0
KSW1 152242Z 36009KT 12/M01 A3017 RMK A01 T01201014  RH  039%=      5-min Rain = 0
KSW1 152243Z 35006KT 12/M02 A3017 RMK A01 T01211016  RH  039%=      5-min Rain = 0
KSW1 152244Z 36005KT 12/M02 A3017 RMK A01 T01201017  RH  039%=      5-min Rain = 0
KSW1 152245Z 34005KT 12/M02 A3017 RMK A01 T01201016  RH  039%=      5-min Rain = 0
KSW1 152246Z 33007KT 12/M01 A3017 RMK A01 T01211013  RH  039%=      5-min Rain = 0
KSW1 152247Z 32006KT 12/M02 A3017 RMK A01 T01211015  RH  039%=      5-min Rain = 0
KSW1 152248Z 31006KT 12/M01 A3017 RMK A01 T01211011  RH  040%=      5-min Rain = 0
KSW1 152249Z 32003KT 12/M02 A3017 RMK A01 T01211015  RH  039%=      5-min Rain = 0
KSW1 152250Z 32004KT 12/M02 A3017 RMK A01 T01211018  RH  038%=      5-min Rain = 0
KSW1 152251Z 32004KT 12/M02 A3017 RMK A01 T01201018  RH  038%=      5-min Rain = 0
KSW1 152252Z 33003KT 12/M02 A3017 RMK A01 T01181022  RH  038%=      5-min Rain = 0
KSW1 152253Z 30003KT 12/M02 A3017 RMK A01 T01191017  RH  039%=      5-min Rain = 0
KSW1 152254Z 34006G12KT 12/M02 A3017 RMK A01 T01201020  RH  038%=      5-min Rain = 0
KSW1 152255Z 03004KT 12/M02 A3017 RMK A01 T01201016  RH  039%=      5-min Rain = 0
KSW1 152256Z 36003KT 12/M01 A3017 RMK A01 T01211014  RH  039%=      5-min Rain = 0
KSW1 152257Z 01004KT 12/M02 A3017 RMK A01 T01201015  RH  039%=      5-min Rain = 0
KSW1 152258Z 01003KT 12/M01 A3017 RMK A01 T01211013  RH  039%=      5-min Rain = 0
KSW1 152259Z 00003KT 12/M01 A3017 RMK A01 T01221013  RH  039%=      5-min Rain = 0
KSW1 152300Z 03004KT 12/M02 A3017 RMK A01 T01231015  RH  038%=      5-min Rain = 0
KSW1 152301Z 02005KT 12/M02 A3017 RMK A01 T01221017  RH  038%=      5-min Rain = 0
KSW1 152302Z 01005KT 12/M02 A3017 RMK A01 T01201016  RH  039%=      5-min Rain = 0
KSW1 152303Z 00006KT 12/M02 A3017 RMK A01 T01201016  RH  039%=      5-min Rain = 0
KSW1 152304Z 01006KT 12/M02 A3017 RMK A01 T01201020  RH  038%=      5-min Rain = 0
KSW1 152305Z 36006KT 12/M02 A3017 RMK A01 T01191020  RH  038%=      5-min Rain = 0
KSW1 152306Z 35003KT 12/M02 A3017 RMK A01 T01191022  RH  037%=      5-min Rain = 0
KSW1 152307Z 34005KT 12/M02 A3017 RMK A01 T01191022  RH  037%=      5-min Rain = 0
KSW1 152308Z 01005KT 12/M02 A3017 RMK A01 T01191017  RH  039%=      5-min Rain = 0
KSW1 152309Z 01005KT 12/M02 A3017 RMK A01 T01201018  RH  038%=      5-min Rain = 0
KSW1 152310Z 02005KT 12/M02 A3017 RMK A01 T01201018  RH  038%=      5-min Rain = 0
KSW1 152311Z 01005KT 12/M02 A3017 RMK A01 T01201019  RH  038%=      5-min Rain = 0
KSW1 152312Z 01005KT 12/M02 A3017 RMK A01 T01201018  RH  038%=      5-min Rain = 0
KSW1 152313Z 02005KT 12/M02 A3017 RMK A01 T01191017  RH  039%=      5-min Rain = 0
KSW1 152314Z 34006KT 12/M02 A3017 RMK A01 T01201015  RH  039%=      5-min Rain = 0
KSW1 152315Z 34006KT 12/M01 A3017 RMK A01 T01201013  RH  039%=      5-min Rain = 0
KSW1 152316Z 32005KT 12/M01 A3017 RMK A01 T01201011  RH  040%=      5-min Rain = 0
KSW1 152317Z 30004KT 12/M01 A3017 RMK A01 T01201007  RH  041%=      5-min Rain = 0
KSW1 152318Z 29004KT 12/M01 A3017 RMK A01 T01211011  RH  040%=      5-min Rain = 0
KSW1 152319Z 29005KT 12/M01 A3017 RMK A01 T01201012  RH  040%=      5-min Rain = 0
KSW1 152320Z 27004KT 12/M01 A3017 RMK A01 T01201013  RH  040%=      5-min Rain = 0
KSW1 152321Z 27003KT 12/M01 A3017 RMK A01 T01201013  RH  040%=      5-min Rain = 0
KSW1 152322Z 28003KT 12/M02 A3017 RMK A01 T01201015  RH  039%=      5-min Rain = 0
KSW1 152323Z 33003KT 12/M01 A3017 RMK A01 T01191014  RH  039%=      5-min Rain = 0
KSW1 152324Z 33003KT 12/M01 A3017 RMK A01 T01191013  RH  040%=      5-min Rain = 0
KSW1 152325Z 34004KT 12/M01 A3017 RMK A01 T01191014  RH  040%=      5-min Rain = 0
KSW1 152326Z 33002KT 12/M01 A3017 RMK A01 T01181014  RH  040%=      5-min Rain = 0
KSW1 152327Z 33003KT 12/M02 A3017 RMK A01 T01181015  RH  040%=      5-min Rain = 0
KSW1 152328Z 33006KT 12/M01 A3017 RMK A01 T01181011  RH  041%=      5-min Rain = 0
KSW1 152329Z 35005KT 12/M01 A3017 RMK A01 T01181007  RH  042%=      5-min Rain = 0
KSW1 152330Z 34004KT 12/M01 A3017 RMK A01 T01181008  RH  042%=      5-min Rain = 0
KSW1 152331Z 34005KT 12/M01 A3017 RMK A01 T01191008  RH  041%=      5-min Rain = 0
KSW1 152332Z 00005KT 12/M01 A3017 RMK A01 T01191014  RH  040%=      5-min Rain = 0
KSW1 152333Z 00005KT 12/M02 A3017 RMK A01 T01181015  RH  040%=      5-min Rain = 0
KSW1 152334Z 00004KT 12/M02 A3017 RMK A01 T01171016  RH  040%=      5-min Rain = 0
KSW1 152335Z 36004KT 12/M02 A3017 RMK A01 T01161017  RH  039%=      5-min Rain = 0
KSW1 152336Z 34006KT 12/M01 A3017 RMK A01 T01161014  RH  041%=      5-min Rain = 0
KSW1 152337Z 33005KT 12/M02 A3017 RMK A01 T01161016  RH  040%=      5-min Rain = 0
KSW1 152338Z 33004KT 12/M02 A3017 RMK A01 T01151017  RH  040%=      5-min Rain = 0
KSW1 152339Z 33003KT 11/M01 A3017 RMK A01 T01141014  RH  041%=      5-min Rain = 0
KSW1 152340Z 33005KT 12/M01 A3017 RMK A01 T01151010  RH  042%=      5-min Rain = 0
KSW1 152341Z 33004KT 12/M01 A3017 RMK A01 T01151012  RH  041%=      5-min Rain = 0
KSW1 152342Z 32003KT 12/M01 A3017 RMK A01 T01151012  RH  041%=      5-min Rain = 0
KSW1 152343Z 33004KT 12/M01 A3016 RMK A01 T01151014  RH  041%=      5-min Rain = 0
KSW1 152344Z 33003KT 12/M01 A3016 RMK A01 T01151013  RH  041%=      5-min Rain = 0
KSW1 152345Z 34003KT 12/M01 A3016 RMK A01 T01151012  RH  041%=      5-min Rain = 0
KSW1 152346Z 35003KT 12/M01 A3016 RMK A01 T01151012  RH  041%=      5-min Rain = 0
KSW1 152347Z 35004KT 12/M01 A3016 RMK A01 T01151013  RH  041%=      5-min Rain = 0
KSW1 152348Z 34004KT 12/M02 A3016 RMK A01 T01151015  RH  040%=      5-min Rain = 0
KSW1 152349Z 36004KT 11/M02 A3016 RMK A01 T01141015  RH  041%=      5-min Rain = 0
KSW1 152350Z 34004KT 11/M02 A3016 RMK A01 T01141017  RH  040%=      5-min Rain = 0
KSW1 152351Z 34004KT 11/M01 A3016 RMK A01 T01131014  RH  041%=      5-min Rain = 0
KSW1 152352Z 33003KT 11/M02 A3016 RMK A01 T01131015  RH  041%=      5-min Rain = 0
KSW1 152353Z 35004KT 11/M02 A3016 RMK A01 T01131015  RH  041%=      5-min Rain = 0
KSW1 152354Z 36005KT 11/M02 A3016 RMK A01 T01131015  RH  041%=      5-min Rain = 0
KSW1 152355Z 00003KT 11/M02 A3016 RMK A01 T01121015  RH  041%=      5-min Rain = 0
KSW1 152356Z 32004KT 11/M01 A3016 RMK A01 T01121014  RH  042%=      5-min Rain = 0
KSW1 152357Z 33004KT 11/M01 A3016 RMK A01 T01121010  RH  043%=      5-min Rain = 0
KSW1 152358Z 33004KT 11/M01 A3016 RMK A01 T01121013  RH  042%=      5-min Rain = 0
KSW1 152359Z 32004KT 11/M01 A3016 RMK A01 T01111012  RH  042%=      5-min Rain = 0
KSW1 160000Z 32004KT 11/M01 A3016 RMK A01 T01111008  RH  044%=      5-min Rain = 0
KSW1 160001Z 32004KT 11/M01 A3016 RMK A01 T01111007  RH  044%=      5-min Rain = 0
KSW1 160002Z 32004KT 11/M01 A3016 RMK A01 T01111006  RH  044%=      5-min Rain = 0
KSW1 160003Z 32004KT 11/M01 A3016 RMK A01 T01111009  RH  044%=      5-min Rain = 0
KSW1 160004Z 33004KT 11/M01 A3016 RMK A01 T01101010  RH  043%=      5-min Rain = 0
KSW1 160005Z 35003KT 11/M00 A3016 RMK A01 T01101003  RH  046%=      5-min Rain = 0
KSW1 160006Z 35004KT 11/M00 A3016 RMK A01 T01091004  RH  045%=      5-min Rain = 0
KSW1 160007Z 34004KT 11/M01 A3016 RMK A01 T01081007  RH  045%=      5-min Rain = 0
KSW1 160008Z 35004KT 11/M01 A3016 RMK A01 T01071005  RH  046%=      5-min Rain = 0
KSW1 160009Z 36004KT 11/M00 A3016 RMK A01 T01061004  RH  046%=      5-min Rain = 0
KSW1 160010Z 00003KT 11/M01 A3016 RMK A01 T01051005  RH  046%=      5-min Rain = 0
KSW1 160011Z 01003KT 10/M00 A3016 RMK A01 T01041004  RH  047%=      5-min Rain = 0
KSW1 160012Z 01003KT 10/M00 A3016 RMK A01 T01031002  RH  048%=      5-min Rain = 0
KSW1 160013Z 01003KT 10/M00 A3016 RMK A01 T01031002  RH  048%=      5-min Rain = 0
KSW1 160014Z 02003KT 10/M00 A3016 RMK A01 T01021003  RH  048%=      5-min Rain = 0
KSW1 160015Z 03003KT 10/M00 A3016 RMK A01 T01021003  RH  048%=      5-min Rain = 0
KSW1 160016Z 03003KT 10/M00 A3016 RMK A01 T01011004  RH  048%=      5-min Rain = 0
KSW1 160017Z 03003KT 10/M00 A3016 RMK A01 T01011003  RH  048%=      5-min Rain = 0
KSW1 160018Z 03003KT 10/M00 A3016 RMK A01 T01001002  RH  049%=      5-min Rain = 0
KSW1 160019Z 03003KT 10/M00 A3016 RMK A01 T00991002  RH  049%=      5-min Rain = 0
KSW1 160020Z 03003KT 10/M00 A3016 RMK A01 T00991003  RH  049%=      5-min Rain = 0
KSW1 160021Z 03003KT 10/M01 A3016 RMK A01 T00971005  RH  049%=      5-min Rain = 0
KSW1 160022Z 04003KT 10/M01 A3015 RMK A01 T00971006  RH  049%=      5-min Rain = 0
KSW1 160023Z 04003KT 10/M01 A3015 RMK A01 T00961007  RH  049%=      5-min Rain = 0
KSW1 160024Z 03003KT 10/M01 A3015 RMK A01 T00951007  RH  049%=      5-min Rain = 0
KSW1 160025Z 03003KT 09/M01 A3015 RMK A01 T00941008  RH  049%=      5-min Rain = 0
KSW1 160026Z 03004KT 09/M01 A3015 RMK A01 T00931009  RH  049%=      5-min Rain = 0
KSW1 160027Z 03004KT 09/M01 A3015 RMK A01 T00931010  RH  049%=      5-min Rain = 0
KSW1 160028Z 02003KT 09/M01 A3015 RMK A01 T00921009  RH  049%=      5-min Rain = 0
KSW1 160029Z 03003KT 09/M01 A3015 RMK A01 T00911010  RH  049%=      5-min Rain = 0
KSW1 160030Z 03003KT 09/M01 A3015 RMK A01 T00911011  RH  049%=      5-min Rain = 0
KSW1 160031Z 03003KT 09/M01 A3015 RMK A01 T00911012  RH  049%=      5-min Rain = 0
KSW1 160032Z 02003KT 09/M01 A3015 RMK A01 T00901011  RH  049%=      5-min Rain = 0
KSW1 160033Z 03003KT 09/M01 A3015 RMK A01 T00901012  RH  049%=      5-min Rain = 0
KSW1 160034Z 02003KT 09/M01 A3015 RMK A01 T00901012  RH  049%=      5-min Rain = 0
KSW1 160035Z 03004KT 09/M01 A3015 RMK A01 T00901012  RH  049%=      5-min Rain = 0
KSW1 160036Z 03003KT 09/M01 A3015 RMK A01 T00891011  RH  049%=      5-min Rain = 0
KSW1 160037Z 02003KT 09/M01 A3015 RMK A01 T00891011  RH  049%=      5-min Rain = 0
KSW1 160038Z 02003KT 09/M01 A3015 RMK A01 T00891011  RH  050%=      5-min Rain = 0
KSW1 160039Z 02003KT 09/M01 A3015 RMK A01 T00891010  RH  050%=      5-min Rain = 0
KSW1 160040Z 03003KT 09/M01 A3015 RMK A01 T00891010  RH  050%=      5-min Rain = 0
KSW1 160041Z 03003KT 09/M01 A3015 RMK A01 T00891010  RH  050%=      5-min Rain = 0
KSW1 160042Z 03003KT 09/M01 A3015 RMK A01 T00891010  RH  050%=      5-min Rain = 0
KSW1 160043Z 03003KT 09/M01 A3015 RMK A01 T00891010  RH  050%=      5-min Rain = 0
KSW1 160044Z 03003KT 09/M01 A3015 RMK A01 T00891010  RH  050%=      5-min Rain = 0
KSW1 160045Z 03003KT 09/M01 A3015 RMK A01 T00891010  RH  050%=      5-min Rain = 0
KSW1 160046Z 04003KT 09/M01 A3015 RMK A01 T00891009  RH  050%=      5-min Rain = 0
KSW1 160047Z 04002KT 09/M01 A3015 RMK A01 T00871009  RH  051%=      5-min Rain = 0
KSW1 160048Z 05003KT 09/M01 A3015 RMK A01 T00871009  RH  051%=      5-min Rain = 0
KSW1 160049Z 04003KT 09/M01 A3015 RMK A01 T00871010  RH  051%=      5-min Rain = 0
KSW1 160050Z 05003KT 09/M01 A3015 RMK A01 T00861010  RH  051%=      5-min Rain = 0
KSW1 160051Z 05003KT 09/M01 A3015 RMK A01 T00861008  RH  052%=      5-min Rain = 0
KSW1 160052Z 05004KT 08/M01 A3016 RMK A01 T00841008  RH  052%=      5-min Rain = 0
KSW1 160053Z 05004KT 08/M01 A3016 RMK A01 T00821008  RH  053%=      5-min Rain = 0
KSW1 160054Z 06005KT 08/M01 A3016 RMK A01 T00801008  RH  054%=      5-min Rain = 0
KSW1 160055Z 06005KT 08/M01 A3016 RMK A01 T00791006  RH  055%=      5-min Rain = 0
KSW1 160056Z 07005KT 08/M01 A3016 RMK A01 T00771005  RH  056%=      5-min Rain = 0
KSW1 160057Z 08005KT 08/M01 A3016 RMK A01 T00751005  RH  057%=      5-min Rain = 0
KSW1 160058Z 09004KT 07/M01 A3016 RMK A01 T00741005  RH  057%=      5-min Rain = 0
KSW1 160059Z 09004KT 07/M01 A3016 RMK A01 T00731006  RH  057%=      5-min Rain = 0
KSW1 160100Z 09004KT 07/M01 A3016 RMK A01 T00721005  RH  058%=      5-min Rain = 0
KSW1 160101Z 09004KT 07/M01 A3016 RMK A01 T00711006  RH  058%=      5-min Rain = 0
KSW1 160102Z 09004KT 07/M01 A3016 RMK A01 T00701006  RH  059%=      5-min Rain = 0
KSW1 160103Z 09005KT 07/M01 A3016 RMK A01 T00691005  RH  059%=      5-min Rain = 0
KSW1 160104Z 09005KT 07/M01 A3016 RMK A01 T00681005  RH  060%=      5-min Rain = 0
KSW1 160105Z 09005KT 07/M01 A3016 RMK A01 T00671005  RH  060%=      5-min Rain = 0
KSW1 160106Z 09005KT 07/M00 A3016 RMK A01 T00651004  RH  061%=      5-min Rain = 0
KSW1 160107Z 09005KT 06/M00 A3016 RMK A01 T00641004  RH  062%=      5-min Rain = 0
KSW1 160108Z 09004KT 06/M00 A3016 RMK A01 T00631003  RH  062%=      5-min Rain = 0
KSW1 160109Z 09005KT 06/M00 A3016 RMK A01 T00621004  RH  063%=      5-min Rain = 0
KSW1 160110Z 09005KT 06/M00 A3016 RMK A01 T00621003  RH  063%=      5-min Rain = 0
KSW1 160111Z 09005KT 06/M00 A3016 RMK A01 T00611004  RH  063%=      5-min Rain = 0
KSW1 160112Z 09005KT 06/M00 A3016 RMK A01 T00611004  RH  063%=      5-min Rain = 0
KSW1 160113Z 09005KT 06/M01 A3016 RMK A01 T00611005  RH  063%=      5-min Rain = 0
KSW1 160114Z 09005KT 06/M01 A3016 RMK A01 T00621005  RH  062%=      5-min Rain = 0
KSW1 160115Z 09005KT 06/M01 A3016 RMK A01 T00621005  RH  062%=      5-min Rain = 0
KSW1 160116Z 09005KT 06/M01 A3016 RMK A01 T00611006  RH  062%=      5-min Rain = 0
KSW1 160117Z 09006KT 06/M01 A3016 RMK A01 T00611006  RH  062%=      5-min Rain = 0
KSW1 160118Z 09006KT 06/M01 A3016 RMK A01 T00621005  RH  062%=      5-min Rain = 0
KSW1 160119Z 09006KT 06/M01 A3016 RMK A01 T00621005  RH  062%=      5-min Rain = 0
KSW1 160120Z 09006KT 06/M01 A3016 RMK A01 T00611005  RH  063%=      5-min Rain = 0
KSW1 160121Z 09006KT 06/M01 A3016 RMK A01 T00611005  RH  063%=      5-min Rain = 0
KSW1 160122Z 09005KT 06/M01 A3016 RMK A01 T00601005  RH  063%=      5-min Rain = 0
KSW1 160123Z 09006KT 06/M01 A3016 RMK A01 T00601005  RH  063%=      5-min Rain = 0
KSW1 160124Z 09006KT 06/M01 A3016 RMK A01 T00591005  RH  063%=      5-min Rain = 0
KSW1 160125Z 08006KT 06/M01 A3016 RMK A01 T00581006  RH  063%=      5-min Rain = 0
KSW1 160126Z 08006KT 06/M01 A3016 RMK A01 T00581006  RH  063%=      5-min Rain = 0
KSW1 160127Z 08006KT 06/M01 A3016 RMK A01 T00581005  RH  064%=      5-min Rain = 0
KSW1 160128Z 08006KT 06/M01 A3016 RMK A01 T00571005  RH  064%=      5-min Rain = 0
KSW1 160129Z 08006KT 06/M01 A3016 RMK A01 T00571006  RH  064%=      5-min Rain = 0
KSW1 160130Z 09006KT 06/M01 A3016 RMK A01 T00571006  RH  064%=      5-min Rain = 0
KSW1 160131Z 09005KT 06/M01 A3016 RMK A01 T00571007  RH  064%=      5-min Rain = 0
KSW1 160132Z 09005KT 06/M01 A3016 RMK A01 T00571007  RH  064%=      5-min Rain = 0
KSW1 160133Z 09005KT 06/M01 A3016 RMK A01 T00571007  RH  064%=      5-min Rain = 0
KSW1 160134Z 09005KT 06/M01 A3016 RMK A01 T00571007  RH  063%=      5-min Rain = 0
KSW1 160135Z 09005KT 06/M01 A3016 RMK A01 T00571008  RH  063%=      5-min Rain = 0
KSW1 160136Z 09005KT 06/M01 A3016 RMK A01 T00561007  RH  064%=      5-min Rain = 0
KSW1 160137Z 09006KT 06/M01 A3016 RMK A01 T00561006  RH  064%=      5-min Rain = 0
KSW1 160138Z 09006KT 06/M01 A3016 RMK A01 T00561006  RH  065%=      5-min Rain = 0
KSW1 160139Z 09006KT 06/M01 A3016 RMK A01 T00551005  RH  065%=      5-min Rain = 0
KSW1 160140Z 10006KT 05/M01 A3016 RMK A01 T00541005  RH  066%=      5-min Rain = 0
KSW1 160141Z 10005KT 05/M01 A3016 RMK A01 T00531005  RH  066%=      5-min Rain = 0
KSW1 160142Z 10006KT 05/M01 A3016 RMK A01 T00521005  RH  066%=      5-min Rain = 0
KSW1 160143Z 10005KT 05/M01 A3016 RMK A01 T00521005  RH  067%=      5-min Rain = 0
KSW1 160144Z 10006KT 05/M01 A3016 RMK A01 T00511006  RH  067%=      5-min Rain = 0
KSW1 160145Z 10006KT 05/M01 A3016 RMK A01 T00511005  RH  067%=      5-min Rain = 0
KSW1 160146Z 10006KT 05/M01 A3016 RMK A01 T00501005  RH  067%=      5-min Rain = 0
KSW1 160147Z 10006KT 05/M01 A3016 RMK A01 T00491006  RH  068%=      5-min Rain = 0
KSW1 160148Z 10006KT 05/M01 A3016 RMK A01 T00491006  RH  068%=      5-min Rain = 0
KSW1 160149Z 10006KT 05/M01 A3016 RMK A01 T00491006  RH  068%=      5-min Rain = 0
KSW1 160150Z 10006KT 05/M01 A3016 RMK A01 T00491007  RH  067%=      5-min Rain = 0
KSW1 160151Z 10006KT 05/M01 A3016 RMK A01 T00491007  RH  067%=      5-min Rain = 0
KSW1 160152Z 10006KT 05/M01 A3016 RMK A01 T00491008  RH  067%=      5-min Rain = 0
KSW1 160153Z 10006KT 05/M01 A3016 RMK A01 T00501008  RH  066%=      5-min Rain = 0
KSW1 160154Z 10006KT 05/M01 A3016 RMK A01 T00501008  RH  066%=      5-min Rain = 0
KSW1 160155Z 10006KT 05/M01 A3017 RMK A01 T00501009  RH  066%=      5-min Rain = 0
KSW1 160156Z 10006KT 05/M01 A3017 RMK A01 T00501009  RH  065%=      5-min Rain = 0
KSW1 160157Z 10005KT 05/M01 A3017 RMK A01 T00501009  RH  065%=      5-min Rain = 0
KSW1 160158Z 11005KT 05/M01 A3017 RMK A01 T00501008  RH  066%=      5-min Rain = 0
KSW1 160159Z 11005KT 05/M01 A3017 RMK A01 T00501008  RH  066%=      5-min Rain = 0
KSW1 160200Z 12004KT 05/M01 A3017 RMK A01 T00501008  RH  066%=      5-min Rain = 0
KSW1 160201Z 12004KT 05/M01 A3017 RMK A01 T00491006  RH  068%=      5-min Rain = 0
KSW1 160202Z 12003KT 05/M00 A3017 RMK A01 T00481004  RH  069%=      5-min Rain = 0
KSW1 160203Z 12003KT 05/M01 A3017 RMK A01 T00481005  RH  069%=      5-min Rain = 0
KSW1 160204Z 13002KT 05/M01 A3017 RMK A01 T00471006  RH  069%=      5-min Rain = 0
KSW1 160205Z 13002KT 05/M01 A3017 RMK A01 T00461007  RH  068%=      5-min Rain = 0
KSW1 160206Z 13003KT 05/M01 A3017 RMK A01 T00461008  RH  068%=      5-min Rain = 0
KSW1 160207Z 13004KT 05/M01 A3017 RMK A01 T00461009  RH  068%=      5-min Rain = 0
KSW1 160208Z 13004KT 05/M01 A3017 RMK A01 T00451009  RH  068%=      5-min Rain = 0
KSW1 160209Z 13004KT 05/M01 A3017 RMK A01 T00461008  RH  068%=      5-min Rain = 0
KSW1 160210Z 13004KT 05/M01 A3017 RMK A01 T00461007  RH  068%=      5-min Rain = 0
KSW1 160211Z 12004KT 05/M01 A3017 RMK A01 T00471007  RH  068%=      5-min Rain = 0
KSW1 160212Z 12004KT 05/M01 A3017 RMK A01 T00481008  RH  067%=      5-min Rain = 0
KSW1 160213Z 12004KT 05/M01 A3017 RMK A01 T00481009  RH  067%=      5-min Rain = 0
KSW1 160214Z 12004KT 05/M01 A3017 RMK A01 T00481010  RH  066%=      5-min Rain = 0
KSW1 160215Z 12005KT 05/M01 A3017 RMK A01 T00491010  RH  066%=      5-min Rain = 0
KSW1 160216Z 12005KT 05/M01 A3017 RMK A01 T00491010  RH  066%=      5-min Rain = 0
KSW1 160217Z 13004KT 05/M01 A3017 RMK A01 T00491010  RH  066%=      5-min Rain = 0
KSW1 160218Z 13005KT 05/M01 A3017 RMK A01 T00491010  RH  066%=      5-min Rain = 0
KSW1 160219Z 13004KT 05/M01 A3017 RMK A01 T00491009  RH  066%=      5-min Rain = 0
KSW1 160220Z 13005KT 05/M01 A3017 RMK A01 T00491008  RH  067%=      5-min Rain = 0
KSW1 160221Z 14005KT 05/M01 A3017 RMK A01 T00481007  RH  067%=      5-min Rain = 0
KSW1 160222Z 14004KT 05/M01 A3017 RMK A01 T00471007  RH  068%=      5-min Rain = 0
KSW1 160223Z 15004KT 05/M01 A3017 RMK A01 T00451007  RH  069%=      5-min Rain = 0
KSW1 160224Z 15005KT 04/M01 A3017 RMK A01 T00441007  RH  069%=      5-min Rain = 0
KSW1 160225Z 15004KT 04/M01 A3017 RMK A01 T00431006  RH  070%=      5-min Rain = 0
KSW1 160226Z 15004KT 04/M01 A3017 RMK A01 T00421006  RH  071%=      5-min Rain = 0
KSW1 160227Z 15004KT 04/M01 A3017 RMK A01 T00411007  RH  071%=      5-min Rain = 0
KSW1 160228Z 15004KT 04/M01 A3017 RMK A01 T00411008  RH  071%=      5-min Rain = 0
KSW1 160229Z 15004KT 04/M01 A3017 RMK A01 T00411007  RH  071%=      5-min Rain = 0
KSW1 160230Z 14004KT 04/M01 A3017 RMK A01 T00411006  RH  071%=      5-min Rain = 0
KSW1 160231Z 15004KT 04/M01 A3017 RMK A01 T00411007  RH  071%=      5-min Rain = 0
KSW1 160232Z 15004KT 04/M01 A3017 RMK A01 T00411007  RH  071%=      5-min Rain = 0
KSW1 160233Z 15004KT 04/M01 A3017 RMK A01 T00411006  RH  071%=      5-min Rain = 0
KSW1 160234Z 15004KT 04/M01 A3017 RMK A01 T00411006  RH  071%=      5-min Rain = 0
KSW1 160235Z 14004KT 04/M01 A3017 RMK A01 T00401007  RH  071%=      5-min Rain = 0
KSW1 160236Z 14004KT 04/M01 A3017 RMK A01 T00401007  RH  071%=      5-min Rain = 0
KSW1 160237Z 14004KT 04/M01 A3017 RMK A01 T00401007  RH  071%=      5-min Rain = 0
KSW1 160238Z 14004KT 04/M01 A3017 RMK A01 T00401008  RH  071%=      5-min Rain = 0
KSW1 160239Z 14004KT 04/M01 A3017 RMK A01 T00401008  RH  071%=      5-min Rain = 0
KSW1 160240Z 14004KT 04/M01 A3017 RMK A01 T00401008  RH  071%=      5-min Rain = 0
KSW1 160241Z 14004KT 04/M01 A3017 RMK A01 T00401008  RH  071%=      5-min Rain = 0
KSW1 160242Z 14004KT 04/M01 A3017 RMK A01 T00401008  RH  071%=      5-min Rain = 0
KSW1 160243Z 14004KT 04/M01 A3017 RMK A01 T00401008  RH  071%=      5-min Rain = 0
KSW1 160244Z 14004KT 04/M01 A3017 RMK A01 T00391008  RH  071%=      5-min Rain = 0
KSW1 160245Z 14004KT 04/M01 A3017 RMK A01 T00391008  RH  071%=      5-min Rain = 0
KSW1 160246Z 13004KT 04/M01 A3017 RMK A01 T00391008  RH  071%=      5-min Rain = 0
KSW1 160247Z 14004KT 04/M01 A3017 RMK A01 T00391008  RH  071%=      5-min Rain = 0
KSW1 160248Z 14004KT 04/M01 A3017 RMK A01 T00381009  RH  071%=      5-min Rain = 0
KSW1 160249Z 14004KT 04/M01 A3017 RMK A01 T00381008  RH  072%=      5-min Rain = 0
KSW1 160250Z 14004KT 04/M01 A3017 RMK A01 T00381009  RH  072%=      5-min Rain = 0
KSW1 160251Z 13004KT 04/M01 A3017 RMK A01 T00381009  RH  072%=      5-min Rain = 0
KSW1 160252Z 13004KT 04/M01 A3017 RMK A01 T00371009  RH  072%=      5-min Rain = 0
KSW1 160253Z 13004KT 04/M01 A3017 RMK A01 T00361009  RH  072%=      5-min Rain = 0
KSW1 160254Z 14004KT 04/M01 A3017 RMK A01 T00361008  RH  073%=      5-min Rain = 0
KSW1 160255Z 14004KT 04/M01 A3017 RMK A01 T00351009  RH  073%=      5-min Rain = 0
KSW1 160256Z 14004KT 03/M01 A3017 RMK A01 T00341008  RH  073%=      5-min Rain = 0
KSW1 160257Z 14004KT 03/M01 A3018 RMK A01 T00341009  RH  074%=      5-min Rain = 0
KSW1 160258Z 14004KT 03/M01 A3018 RMK A01 T00341009  RH  074%=      5-min Rain = 0
KSW1 160259Z 14004KT 03/M01 A3018 RMK A01 T00341009  RH  074%=      5-min Rain = 0
KSW1 160300Z 14004KT 03/M01 A3018 RMK A01 T00341009  RH  073%=      5-min Rain = 0
KSW1 160301Z 14004KT 04/M01 A3018 RMK A01 T00351010  RH  073%=      5-min Rain = 0
KSW1 160302Z 14004KT 04/M01 A3018 RMK A01 T00351010  RH  072%=      5-min Rain = 0
KSW1 160303Z 14004KT 04/M01 A3018 RMK A01 T00351011  RH  072%=      5-min Rain = 0
KSW1 160304Z 14004KT 04/M01 A3018 RMK A01 T00351010  RH  072%=      5-min Rain = 0
KSW1 160305Z 14004KT 04/M01 A3018 RMK A01 T00351011  RH  072%=      5-min Rain = 0
KSW1 160306Z 14004KT 04/M01 A3018 RMK A01 T00361011  RH  071%=      5-min Rain = 0
KSW1 160307Z 14004KT 04/M01 A3017 RMK A01 T00361011  RH  071%=      5-min Rain = 0
KSW1 160308Z 14004KT 04/M01 A3017 RMK A01 T00371011  RH  071%=      5-min Rain = 0
KSW1 160309Z 14003KT 04/M01 A3017 RMK A01 T00381011  RH  070%=      5-min Rain = 0
KSW1 160310Z 14004KT 04/M01 A3017 RMK A01 T00381011  RH  070%=      5-min Rain = 0
KSW1 160311Z 14004KT 04/M01 A3017 RMK A01 T00391012  RH  070%=      5-min Rain = 0
KSW1 160312Z 14004KT 04/M01 A3017 RMK A01 T00391012  RH  069%=      5-min Rain = 0
KSW1 160313Z 14004KT 04/M01 A3017 RMK A01 T00391012  RH  069%=      5-min Rain = 0
KSW1 160314Z 14004KT 04/M01 A3017 RMK A01 T00401012  RH  069%=      5-min Rain = 0
KSW1 160315Z 14004KT 04/M01 A3017 RMK A01 T00401012  RH  069%=      5-min Rain = 0
KSW1 160316Z 14003KT 04/M01 A3017 RMK A01 T00401012  RH  069%=      5-min Rain = 0
KSW1 160317Z 14003KT 04/M01 A3017 RMK A01 T00411012  RH  068%=      5-min Rain = 0
KSW1 160318Z 14003KT 04/M01 A3017 RMK A01 T00411013  RH  068%=      5-min Rain = 0
KSW1 160319Z 14003KT 04/M01 A3017 RMK A01 T00411013  RH  068%=      5-min Rain = 0
KSW1 160320Z 14003KT 04/M01 A3017 RMK A01 T00401013  RH  068%=      5-min Rain = 0
KSW1 160321Z 14003KT 04/M01 A3017 RMK A01 T00401013  RH  068%=      5-min Rain = 0
KSW1 160322Z 14004KT 04/M01 A3017 RMK A01 T00401014  RH  068%=      5-min Rain = 0
KSW1 160323Z 14004KT 04/M01 A3017 RMK A01 T00411014  RH  068%=      5-min Rain = 0
KSW1 160324Z 15004KT 04/M01 A3017 RMK A01 T00411014  RH  067%=      5-min Rain = 0
KSW1 160325Z 15004KT 04/M01 A3017 RMK A01 T00411013  RH  068%=      5-min Rain = 0
KSW1 160326Z 15004KT 04/M01 A3017 RMK A01 T00411012  RH  068%=      5-min Rain = 0
KSW1 160327Z 15004KT 04/M01 A3017 RMK A01 T00411013  RH  068%=      5-min Rain = 0
KSW1 160328Z 15003KT 04/M01 A3017 RMK A01 T00411013  RH  068%=      5-min Rain = 0
KSW1 160329Z 15004KT 04/M01 A3017 RMK A01 T00411013  RH  068%=      5-min Rain = 0
KSW1 160330Z 15004KT 04/M01 A3017 RMK A01 T00411013  RH  068%=      5-min Rain = 0
KSW1 160331Z 16004KT 04/M01 A3017 RMK A01 T00411011  RH  069%=      5-min Rain = 0
KSW1 160332Z 16003KT 04/M01 A3017 RMK A01 T00401012  RH  069%=      5-min Rain = 0
KSW1 160333Z 16003KT 04/M01 A3017 RMK A01 T00401013  RH  069%=      5-min Rain = 0
KSW1 160334Z 16002KT 04/M01 A3017 RMK A01 T00401013  RH  069%=      5-min Rain = 0
KSW1 160335Z 16003KT 04/M01 A3017 RMK A01 T00391014  RH  068%=      5-min Rain = 0
KSW1 160336Z 16003KT 04/M02 A3017 RMK A01 T00391015  RH  068%=      5-min Rain = 0
KSW1 160337Z 16003KT 04/M02 A3017 RMK A01 T00401016  RH  067%=      5-min Rain = 0
KSW1 160338Z 16003KT 04/M02 A3017 RMK A01 T00421015  RH  066%=      5-min Rain = 0
KSW1 160339Z 15003KT 04/M01 A3017 RMK A01 T00431013  RH  067%=      5-min Rain = 0
KSW1 160340Z 15003KT 04/M01 A3017 RMK A01 T00431012  RH  067%=      5-min Rain = 0
KSW1 160341Z 15003KT 04/M02 A3017 RMK A01 T00431015  RH  066%=      5-min Rain = 0
KSW1 160342Z 15003KT 04/M01 A3017 RMK A01 T00431014  RH  066%=      5-min Rain = 0
KSW1 160343Z 15003KT 04/M01 A3017 RMK A01 T00431014  RH  066%=      5-min Rain = 0
KSW1 160344Z 15004KT 04/M02 A3017 RMK A01 T00431015  RH  066%=      5-min Rain = 0
KSW1 160345Z 15004KT 04/M02 A3017 RMK A01 T00431015  RH  066%=      5-min Rain = 0
KSW1 160346Z 15004KT 04/M01 A3017 RMK A01 T00421014  RH  067%=      5-min Rain = 0
KSW1 160347Z 14003KT 04/M02 A3017 RMK A01 T00411016  RH  066%=      5-min Rain = 0
KSW1 160348Z 14003KT 04/M01 A3017 RMK A01 T00411014  RH  067%=      5-min Rain = 0
KSW1 160349Z 13003KT 04/M02 A3017 RMK A01 T00391015  RH  068%=      5-min Rain = 0
KSW1 160350Z 12003KT 04/M02 A3017 RMK A01 T00381015  RH  068%=      5-min Rain = 0
KSW1 160351Z 11003KT 04/M02 A3017 RMK A01 T00371015  RH  068%=      5-min Rain = 0
KSW1 160352Z 12004KT 04/M02 A3017 RMK A01 T00371015  RH  069%=      5-min Rain = 0
KSW1 160353Z 12004KT 04/M02 A3017 RMK A01 T00371016  RH  069%=      5-min Rain = 0
KSW1 160354Z 12004KT 04/M02 A3017 RMK A01 T00371016  RH  068%=      5-min Rain = 0
KSW1 160355Z 13005KT 04/M02 A3017 RMK A01 T00371016  RH  068%=      5-min Rain = 0
KSW1 160356Z 13005KT 04/M02 A3017 RMK A01 T00371016  RH  068%=      5-min Rain = 0
KSW1 160357Z 13004KT 04/M02 A3017 RMK A01 T00371016  RH  068%=      5-min Rain = 0
KSW1 160358Z 13005KT 04/M02 A3017 RMK A01 T00371016  RH  068%=      5-min Rain = 0
KSW1 160359Z 14005KT 04/M02 A3017 RMK A01 T00381016  RH  068%=      5-min Rain = 0
KSW1 160400Z 14005KT 04/M02 A3017 RMK A01 T00381016  RH  068%=      5-min Rain = 0
KSW1 160401Z 14005KT 04/M02 A3017 RMK A01 T00381016  RH  068%=      5-min Rain = 0
KSW1 160402Z 14005KT 04/M02 A3017 RMK A01 T00381016  RH  068%=      5-min Rain = 0
KSW1 160403Z 14005KT 04/M02 A3017 RMK A01 T00381016  RH  068%=      5-min Rain = 0
KSW1 160404Z 14004KT 04/M02 A3017 RMK A01 T00381016  RH  068%=      5-min Rain = 0
KSW1 160405Z 14004KT 04/M02 A3017 RMK A01 T00381016  RH  068%=      5-min Rain = 0
KSW1 160406Z 14005KT 04/M02 A3017 RMK A01 T00381016  RH  068%=      5-min Rain = 0
KSW1 160407Z 14005KT 04/M02 A3017 RMK A01 T00381017  RH  068%=      5-min Rain = 0
KSW1 160408Z 14005KT 04/M02 A3017 RMK A01 T00381016  RH  068%=      5-min Rain = 0
KSW1 160409Z 14005KT 04/M02 A3017 RMK A01 T00381015  RH  068%=      5-min Rain = 0
KSW1 160410Z 14004KT 04/M02 A3017 RMK A01 T00381016  RH  068%=      5-min Rain = 0
KSW1 160411Z 14004KT 04/M02 A3017 RMK A01 T00381016  RH  068%=      5-min Rain = 0
KSW1 160412Z 14004KT 04/M02 A3017 RMK A01 T00391016  RH  067%=      5-min Rain = 0
KSW1 160413Z 14004KT 04/M02 A3017 RMK A01 T00391016  RH  067%=      5-min Rain = 0
KSW1 160414Z 14004KT 04/M02 A3017 RMK A01 T00391016  RH  067%=      5-min Rain = 0
KSW1 160415Z 14004KT 04/M02 A3017 RMK A01 T00391016  RH  067%=      5-min Rain = 0
KSW1 160416Z 14004KT 04/M02 A3017 RMK A01 T00391017  RH  067%=      5-min Rain = 0
KSW1 160417Z 14004KT 04/M02 A3017 RMK A01 T00391017  RH  067%=      5-min Rain = 0
KSW1 160418Z 14004KT 04/M02 A3017 RMK A01 T00391018  RH  067%=      5-min Rain = 0
KSW1 160419Z 14004KT 04/M02 A3017 RMK A01 T00391017  RH  067%=      5-min Rain = 0
KSW1 160420Z 14004KT 04/M02 A3017 RMK A01 T00391017  RH  067%=      5-min Rain = 0
KSW1 160421Z 14004KT 04/M02 A3017 RMK A01 T00381017  RH  067%=      5-min Rain = 0
KSW1 160422Z 14004KT 04/M02 A3017 RMK A01 T00381018  RH  067%=      5-min Rain = 0
KSW1 160423Z 14004KT 04/M02 A3017 RMK A01 T00381018  RH  067%=      5-min Rain = 0
KSW1 160424Z 14004KT 04/M02 A3017 RMK A01 T00381018  RH  067%=      5-min Rain = 0
KSW1 160425Z 14004KT 04/M02 A3017 RMK A01 T00381018  RH  067%=      5-min Rain = 0
KSW1 160426Z 15004KT 04/M02 A3017 RMK A01 T00381018  RH  067%=      5-min Rain = 0
KSW1 160427Z 15004KT 04/M02 A3017 RMK A01 T00381018  RH  067%=      5-min Rain = 0
KSW1 160428Z 15004KT 04/M02 A3017 RMK A01 T00381018  RH  067%=      5-min Rain = 0
KSW1 160429Z 15004KT 04/M02 A3017 RMK A01 T00381017  RH  067%=      5-min Rain = 0
KSW1 160430Z 15005KT 04/M02 A3017 RMK A01 T00381018  RH  067%=      5-min Rain = 0
KSW1 160431Z 15004KT 04/M02 A3017 RMK A01 T00381018  RH  067%=      5-min Rain = 0
KSW1 160432Z 16005KT 04/M02 A3017 RMK A01 T00381019  RH  066%=      5-min Rain = 0
KSW1 160433Z 16004KT 04/M02 A3017 RMK A01 T00381020  RH  066%=      5-min Rain = 0
KSW1 160434Z 16005KT 04/M02 A3017 RMK A01 T00381020  RH  066%=      5-min Rain = 0
KSW1 160435Z 16004KT 04/M02 A3017 RMK A01 T00381020  RH  066%=      5-min Rain = 0
KSW1 160436Z 16004KT 04/M02 A3017 RMK A01 T00391020  RH  066%=      5-min Rain = 0
KSW1 160437Z 16004KT 04/M02 A3017 RMK A01 T00391020  RH  065%=      5-min Rain = 0
KSW1 160438Z 16004KT 04/M02 A3017 RMK A01 T00401020  RH  065%=      5-min Rain = 0
KSW1 160439Z 16004KT 04/M02 A3017 RMK A01 T00401021  RH  065%=      5-min Rain = 0
KSW1 160440Z 16004KT 04/M02 A3017 RMK A01 T00401021  RH  064%=      5-min Rain = 0
KSW1 160441Z 16004KT 04/M02 A3017 RMK A01 T00401020  RH  065%=      5-min Rain = 0
KSW1 160442Z 16004KT 04/M02 A3017 RMK A01 T00411021  RH  064%=      5-min Rain = 0
KSW1 160443Z 16003KT 04/M02 A3017 RMK A01 T00411021  RH  064%=      5-min Rain = 0
KSW1 160444Z 15003KT 04/M02 A3016 RMK A01 T00411020  RH  064%=      5-min Rain = 0
KSW1 160445Z 15004KT 04/M02 A3016 RMK A01 T00411021  RH  064%=      5-min Rain = 0
KSW1 160446Z 15003KT 04/M02 A3016 RMK A01 T00411022  RH  064%=      5-min Rain = 0
KSW1 160447Z 15003KT 04/M02 A3016 RMK A01 T00411022  RH  064%=      5-min Rain = 0
KSW1 160448Z 15003KT 04/M02 A3016 RMK A01 T00411022  RH  064%=      5-min Rain = 0
KSW1 160449Z 15004KT 04/M02 A3016 RMK A01 T00411022  RH  064%=      5-min Rain = 0
KSW1 160450Z 15003KT 04/M02 A3016 RMK A01 T00411022  RH  064%=      5-min Rain = 0
KSW1 160451Z 15004KT 04/M02 A3016 RMK A01 T00411021  RH  064%=      5-min Rain = 0
KSW1 160452Z 15004KT 04/M02 A3016 RMK A01 T00411021  RH  064%=      5-min Rain = 0
KSW1 160453Z 15004KT 04/M02 A3016 RMK A01 T00401020  RH  065%=      5-min Rain = 0
KSW1 160454Z 15004KT 04/M02 A3016 RMK A01 T00401019  RH  065%=      5-min Rain = 0
KSW1 160455Z 16004KT 04/M02 A3016 RMK A01 T00401020  RH  065%=      5-min Rain = 0
KSW1 160456Z 16005KT 04/M02 A3016 RMK A01 T00391021  RH  065%=      5-min Rain = 0
KSW1 160457Z 16005KT 04/M02 A3016 RMK A01 T00401021  RH  064%=      5-min Rain = 0
KSW1 160458Z 16005KT 04/M02 A3016 RMK A01 T00401021  RH  065%=      5-min Rain = 0
KSW1 160459Z 16004KT 04/M02 A3016 RMK A01 T00391022  RH  065%=      5-min Rain = 0
KSW1 160500Z 16004KT 04/M02 A3016 RMK A01 T00391022  RH  065%=      5-min Rain = 0
KSW1 160501Z 16004KT 04/M02 A3016 RMK A01 T00391022  RH  065%=      5-min Rain = 0
KSW1 160502Z 16004KT 04/M02 A3016 RMK A01 T00381022  RH  065%=      5-min Rain = 0
KSW1 160503Z 15004KT 04/M02 A3016 RMK A01 T00381022  RH  065%=      5-min Rain = 0
KSW1 160504Z 16004KT 04/M02 A3016 RMK A01 T00381022  RH  065%=      5-min Rain = 0
KSW1 160505Z 16004KT 04/M02 A3016 RMK A01 T00381022  RH  065%=      5-min Rain = 0
KSW1 160506Z 16004KT 04/M02 A3016 RMK A01 T00381022  RH  065%=      5-min Rain = 0
KSW1 160507Z 16004KT 04/M02 A3016 RMK A01 T00381022  RH  065%=      5-min Rain = 0
KSW1 160508Z 16004KT 04/M02 A3016 RMK A01 T00391021  RH  065%=      5-min Rain = 0
KSW1 160509Z 16004KT 04/M02 A3016 RMK A01 T00391022  RH  064%=      5-min Rain = 0
KSW1 160510Z 16004KT 04/M02 A3016 RMK A01 T00401022  RH  064%=      5-min Rain = 0
KSW1 160511Z 16004KT 04/M02 A3016 RMK A01 T00401023  RH  064%=      5-min Rain = 0
KSW1 160512Z 15004KT 04/M02 A3016 RMK A01 T00401023  RH  063%=      5-min Rain = 0
KSW1 160513Z 16003KT 04/M02 A3016 RMK A01 T00411022  RH  064%=      5-min Rain = 0
KSW1 160514Z 16004KT 04/M02 A3016 RMK A01 T00401020  RH  065%=      5-min Rain = 0
KSW1 160515Z 16004KT 04/M02 A3016 RMK A01 T00401022  RH  064%=      5-min Rain = 0
KSW1 160516Z 16004KT 04/M02 A3015 RMK A01 T00401021  RH  064%=      5-min Rain = 0
KSW1 160517Z 16004KT 04/M02 A3015 RMK A01 T00401021  RH  064%=      5-min Rain = 0
KSW1 160518Z 16004KT 04/M02 A3015 RMK A01 T00401021  RH  065%=      5-min Rain = 0
KSW1 160519Z 16004KT 04/M02 A3015 RMK A01 T00391022  RH  065%=      5-min Rain = 0
KSW1 160520Z 16005KT 04/M02 A3015 RMK A01 T00381021  RH  065%=      5-min Rain = 0
KSW1 160521Z 16004KT 04/M02 A3015 RMK A01 T00381021  RH  065%=      5-min Rain = 0
KSW1 160522Z 16004KT 04/M02 A3015 RMK A01 T00371021  RH  066%=      5-min Rain = 0
KSW1 160523Z 16004KT 04/M02 A3015 RMK A01 T00371021  RH  066%=      5-min Rain = 0
KSW1 160524Z 16004KT 04/M02 A3015 RMK A01 T00371021  RH  066%=      5-min Rain = 0
KSW1 160525Z 16004KT 04/M02 A3015 RMK A01 T00371021  RH  066%=      5-min Rain = 0
KSW1 160526Z 16004KT 04/M02 A3015 RMK A01 T00371020  RH  066%=      5-min Rain = 0
KSW1 160527Z 16004KT 04/M02 A3015 RMK A01 T00371021  RH  066%=      5-min Rain = 0
KSW1 160528Z 16004KT 04/M02 A3015 RMK A01 T00371022  RH  065%=      5-min Rain = 0
KSW1 160529Z 16004KT 04/M02 A3015 RMK A01 T00381021  RH  065%=      5-min Rain = 0
KSW1 160530Z 16004KT 04/M02 A3015 RMK A01 T00381021  RH  065%=      5-min Rain = 0
KSW1 160531Z 16004KT 04/M02 A3015 RMK A01 T00381022  RH  065%=      5-min Rain = 0
KSW1 160532Z 16004KT 04/M02 A3015 RMK A01 T00381022  RH  065%=      5-min Rain = 0
KSW1 160533Z 16004KT 04/M02 A3015 RMK A01 T00381022  RH  065%=      5-min Rain = 0
KSW1 160534Z 16004KT 04/M02 A3015 RMK A01 T00381022  RH  065%=      5-min Rain = 0
KSW1 160535Z 16004KT 04/M02 A3015 RMK A01 T00381021  RH  065%=      5-min Rain = 0
KSW1 160536Z 16004KT 04/M02 A3015 RMK A01 T00381021  RH  065%=      5-min Rain = 0
KSW1 160537Z 16004KT 04/M02 A3015 RMK A01 T00381022  RH  065%=      5-min Rain = 0
KSW1 160538Z 16004KT 04/M02 A3015 RMK A01 T00391021  RH  065%=      5-min Rain = 0
KSW1 160539Z 16004KT 04/M02 A3015 RMK A01 T00391021  RH  065%=      5-min Rain = 0
KSW1 160540Z 16004KT 04/M02 A3015 RMK A01 T00391021  RH  065%=      5-min Rain = 0
KSW1 160541Z 16004KT 04/M02 A3015 RMK A01 T00381021  RH  065%=      5-min Rain = 0
KSW1 160542Z 16005KT 04/M02 A3015 RMK A01 T00381021  RH  065%=      5-min Rain = 0
KSW1 160543Z 17005KT 04/M02 A3015 RMK A01 T00381021  RH  065%=      5-min Rain = 0
KSW1 160544Z 17004KT 04/M02 A3015 RMK A01 T00381021  RH  065%=      5-min Rain = 0
KSW1 160545Z 17005KT 04/M02 A3015 RMK A01 T00381021  RH  066%=      5-min Rain = 0
KSW1 160546Z 17004KT 04/M02 A3015 RMK A01 T00381021  RH  066%=      5-min Rain = 0
KSW1 160547Z 16004KT 04/M02 A3015 RMK A01 T00381021  RH  065%=      5-min Rain = 0
KSW1 160548Z 16004KT 04/M02 A3015 RMK A01 T00381021  RH  065%=      5-min Rain = 0
KSW1 160549Z 16004KT 04/M02 A3015 RMK A01 T00381021  RH  065%=      5-min Rain = 0
KSW1 160550Z 16004KT 04/M02 A3015 RMK A01 T00381021  RH  065%=      5-min Rain = 0
KSW1 160551Z 16004KT 04/M02 A3015 RMK A01 T00381022  RH  065%=      5-min Rain = 0
KSW1 160552Z 16004KT 04/M02 A3015 RMK A01 T00381022  RH  065%=      5-min Rain = 0
KSW1 160553Z 16004KT 04/M02 A3014 RMK A01 T00391022  RH  065%=      5-min Rain = 0
KSW1 160554Z 17004KT 04/M02 A3014 RMK A01 T00391021  RH  065%=      5-min Rain = 0
KSW1 160555Z 17004KT 04/M02 A3014 RMK A01 T00391021  RH  065%=      5-min Rain = 0
KSW1 160556Z 17004KT 04/M02 A3014 RMK A01 T00391021  RH  065%=      5-min Rain = 0
KSW1 160557Z 17004KT 04/M02 A3014 RMK A01 T00391022  RH  065%=      5-min Rain = 0
KSW1 160558Z 17004KT 04/M02 A3014 RMK A01 T00391021  RH  065%=      5-min Rain = 0
KSW1 160559Z 17004KT 04/M02 A3014 RMK A01 T00391021  RH  065%=      5-min Rain = 0

Page generated in 0.1731 seconds.